GFSFLT1_sfc_thetae_000.txt.gz
Theta_e
313 315 320 322 325 328 329 330 330 331 332 329 329 327 327 326 328 328 325 325 324 326 327 327 326 330 330 331 331 332 333 331
311 313 317 315 314 322 324 327 327 327 326 326 326 324 324 323 324 326 323 322 323 323 323 324 325 326 327 328 328 329 330 330
313 314 315 312 310 313 320 323 324 324 323 323 323 323 323 323 322 323 323 322 322 323 323 324 325 327 326 327 326 327 328 328
310 309 310 309 310 312 317 321 321 321 321 321 322 322 323 323 322 323 324 323 323 323 323 325 325 324 324 325 325 326 326 327
310 312 312 312 309 313 318 319 320 321 321 322 322 322 323 322 323 324 325 325 324 324 324 325 323 323 323 323 323 324 325 325
312 313 312 309 311 314 317 322 321 321 321 321 321 322 322 322 323 325 326 326 325 323 324 323 323 323 322 321 322 322 323 323
311 311 309 311 313 315 318 321 321 321 319 319 320 322 323 323 324 324 325 326 326 323 323 322 322 321 321 320 320 321 320 321
309 309 310 312 315 317 320 320 320 320 319 319 320 320 322 323 324 325 326 326 327 324 322 321 321 320 319 318 319 320 321 321
307 309 310 313 316 317 318 318 319 318 318 317 318 319 320 322 324 326 327 327 325 322 321 321 321 320 319 318 319 319 319 321
308 308 310 313 316 317 317 318 317 318 317 318 319 319 320 322 324 326 328 327 325 322 321 321 320 319 318 317 318 317 318 320
308 307 309 313 315 317 317 317 318 318 318 319 319 319 319 320 321 322 323 324 325 324 322 321 320 318 317 317 318 319 317 318
307 307 310 313 315 317 317 317 318 319 320 318 317 317 316 317 319 320 321 324 324 324 323 321 320 319 317 318 319 321 321 318
307 308 312 315 316 317 317 317 318 319 320 319 319 317 317 318 318 319 320 322 325 323 322 320 319 319 319 319 319 320 321 320
307 309 314 313 315 316 317 317 317 318 319 320 319 317 317 316 316 316 317 318 321 321 321 320 320 320 319 320 320 320 320 322
308 310 311 311 313 315 316 316 316 318 319 320 318 319 317 316 316 316 315 316 318 319 319 319 320 321 322 321 322 321 321 323
308 310 311 312 313 315 315 314 316 317 319 319 319 319 317 316 316 316 315 315 316 318 320 321 322 323 323 323 323 322 323 324
308 310 310 312 313 314 314 313 315 316 318 319 319 320 317 317 317 317 316 316 318 319 320 321 322 323 323 323 324 325 325 325
309 309 310 311 313 314 314 314 314 314 317 318 320 321 319 318 318 317 317 317 319 320 320 321 322 323 324 324 325 327 327 324
310 309 310 311 312 312 313 314 314 314 317 316 322 321 320 317 319 318 318 317 318 320 321 322 322 323 323 325 326 326 326 326
310 310 309 310 311 311 311 313 313 314 317 317 321 322 320 318 319 318 318 318 319 320 322 322 322 322 323 324 325 326 326 325

GFSFLT1_sfc_thetae_003.txt.gz
Theta_e
323 327 329 329 333 335 336 342 347 347 345 346 346 343 343 342 340 340 339 337 336 335 334 335 336 334 333 334 334 333 336 337
321 325 328 330 331 334 338 341 344 347 344 343 342 339 339 337 337 340 339 336 336 335 333 335 335 334 335 335 334 335 336 337
322 325 328 331 330 333 337 341 342 344 344 340 339 338 336 336 337 338 338 337 336 336 335 335 335 333 335 336 334 334 335 336
320 322 324 328 330 331 333 338 343 342 340 339 337 338 337 337 336 337 338 336 336 335 335 335 338 337 336 336 332 332 332 334
319 324 325 327 328 328 330 337 341 340 339 338 336 336 337 336 337 338 337 337 337 337 338 336 338 333 336 335 334 334 333 332
321 323 327 328 328 323 329 331 337 339 338 337 336 336 337 336 336 337 337 338 339 338 337 336 335 335 337 334 334 330 329 330
324 323 325 326 325 326 328 332 335 337 337 336 337 338 336 336 337 337 338 338 338 337 336 333 335 335 332 333 332 330 328 329
322 323 323 324 325 329 332 333 336 336 335 334 334 334 335 336 336 337 338 338 337 336 334 331 333 330 329 329 331 330 329 329
320 321 322 322 325 328 332 334 335 333 330 329 331 331 333 334 336 338 338 339 337 336 333 329 328 329 331 330 329 327 328 331
319 319 320 323 324 329 333 334 333 333 331 332 334 335 335 335 337 337 338 337 336 335 331 329 328 328 329 329 328 325 327 330
319 317 318 323 324 328 331 332 333 333 334 333 334 335 334 333 334 335 336 334 334 334 332 330 330 329 328 328 327 325 322 325
318 317 318 322 324 328 331 332 333 333 334 333 334 331 330 332 333 334 334 333 333 333 332 331 331 330 328 327 326 325 326 324
318 317 319 322 325 328 330 332 333 334 334 334 333 333 331 332 332 331 332 333 332 330 331 331 330 329 329 328 327 327 331 329
317 319 321 323 326 328 329 331 332 334 334 334 335 332 330 328 329 329 330 330 330 330 330 330 330 330 329 328 329 329 330 332
316 318 320 323 325 327 328 330 330 333 333 333 333 332 330 327 327 328 326 326 327 329 330 329 330 331 331 331 331 330 330 330
317 319 321 323 325 327 327 330 329 331 332 333 333 333 329 328 328 327 326 327 327 330 329 330 331 331 331 332 332 330 331 333
317 319 322 323 326 327 329 329 330 330 332 333 333 333 329 329 329 328 326 328 327 328 329 330 330 331 332 332 333 332 331 331
317 319 321 324 326 328 330 329 329 330 330 333 332 333 330 330 329 327 327 327 328 328 328 330 331 331 333 333 332 331 331 332
317 318 322 323 326 327 328 327 327 327 329 331 332 332 330 329 329 328 327 328 328 327 328 328 329 331 333 332 331 329 329 331
318 319 321 322 323 326 326 327 327 326 329 329 331 333 330 328 329 329 328 327 327 327 329 328 329 330 332 331 328 327 326 327

GFSFLT1_sfc_thetae_009.txt.gz
Theta_e
326 325 327 329 331 335 338 350 354 350 345 344 350 347 346 345 345 347 348 342 344 342 340 340 340 337 338 337 338 338 336 338
326 325 327 330 332 333 340 343 353 357 346 341 344 345 345 343 344 349 345 340 343 343 338 339 343 338 338 336 335 341 336 337
326 326 328 330 332 334 337 346 354 356 358 344 346 346 342 345 342 344 343 340 344 341 343 339 339 337 337 340 339 339 340 337
325 326 328 330 333 335 337 345 355 356 353 357 353 354 346 342 340 340 343 343 343 339 340 341 344 343 338 337 337 337 335 333
324 326 330 331 334 337 347 351 354 358 358 356 350 345 343 340 339 345 342 345 345 343 339 344 344 343 342 339 339 338 333 334
325 326 332 337 338 341 347 341 352 358 357 354 348 343 342 338 338 340 344 344 343 341 341 344 346 344 343 340 335 334 334 330
327 327 330 336 341 346 345 350 348 356 358 351 351 353 341 338 338 339 341 342 342 343 342 343 345 343 339 337 336 339 334 332
326 329 331 336 344 349 350 349 354 358 352 354 345 340 339 338 338 338 340 341 341 343 342 341 342 338 336 337 337 336 336 336
326 327 332 333 339 343 348 348 353 351 347 343 339 336 338 337 338 340 341 341 343 342 340 339 339 339 338 336 335 329 333 336
323 327 329 336 337 341 342 344 353 352 348 346 341 340 336 336 337 341 341 340 341 341 339 337 338 339 335 333 333 331 331 336
322 324 329 335 337 339 340 342 348 351 350 345 343 340 338 335 334 336 339 339 339 339 338 337 337 336 334 335 334 331 329 331
323 323 333 334 336 339 341 344 347 347 348 343 347 335 330 332 336 335 336 336 336 336 337 336 337 336 335 334 334 332 331 328
321 323 333 334 337 339 343 344 343 344 346 346 336 338 333 333 333 335 338 339 336 333 335 335 335 338 335 334 332 331 335 333
323 332 333 334 337 340 340 339 340 340 339 339 341 336 334 331 332 332 335 335 334 334 333 334 335 335 334 335 333 333 335 335
327 329 330 333 335 336 337 337 336 338 337 337 338 338 337 335 333 333 332 332 335 334 333 334 335 336 335 335 334 334 335 333
327 329 331 332 334 335 335 335 335 335 336 337 337 338 333 332 333 332 332 331 332 334 333 335 335 334 335 336 339 337 335 336
328 330 331 332 332 333 335 335 334 335 335 336 337 337 334 335 336 336 333 336 331 332 333 333 334 334 333 335 336 334 335 334
328 329 330 332 332 334 335 335 334 333 335 335 335 335 335 336 335 333 333 333 331 331 331 333 333 333 333 335 335 335 334 333
327 328 330 331 332 333 334 332 332 333 334 335 335 335 333 335 334 333 332 333 331 330 330 330 330 331 335 336 335 333 331 334
327 328 329 330 331 332 330 331 330 332 332 334 335 335 335 335 334 333 332 331 330 329 329 329 329 332 333 333 331 330 331 331

GFSFLT1_sfc_thetae_012.txt.gz
Theta_e
326 325 325 326 329 334 336 346 349 349 345 346 350 347 347 347 347 346 346 347 345 342 340 340 338 338 334 335 335 336 336 335
325 325 325 326 330 333 345 343 348 348 346 346 350 348 346 345 345 347 346 346 344 343 340 341 338 339 336 336 334 337 336 335
327 327 328 332 333 336 344 345 347 349 353 343 347 348 346 345 345 347 345 342 342 345 343 343 343 341 338 339 337 335 336 333
326 327 329 335 341 339 346 346 347 350 345 352 347 351 346 345 344 346 345 343 344 344 344 342 343 344 339 337 334 335 332 335
324 327 333 339 339 341 348 351 350 350 348 349 355 349 350 345 346 349 344 345 346 345 342 342 344 342 339 337 335 333 331 334
326 330 340 347 344 342 351 337 351 351 351 349 351 347 347 344 345 345 345 347 346 345 341 341 343 342 340 337 335 333 331 332
329 334 333 339 344 348 349 348 350 352 354 353 351 355 347 347 343 342 344 344 344 342 341 342 343 340 337 335 334 333 331 330
328 333 334 334 345 348 351 351 354 353 353 354 350 350 348 346 344 344 346 344 344 343 342 342 341 338 336 334 332 333 332 330
326 331 333 336 343 351 355 353 356 351 348 346 345 341 342 344 345 346 343 344 344 343 341 340 339 336 334 334 331 329 329 330
323 328 334 334 344 351 352 354 354 350 349 348 347 343 340 340 343 344 344 343 344 339 340 338 338 335 333 331 330 327 328 327
320 323 327 342 343 346 347 349 350 351 352 349 351 347 343 341 342 342 342 342 341 339 339 337 335 334 331 331 331 328 325 327
322 324 328 338 340 343 344 346 351 350 352 347 342 336 336 338 339 339 340 340 337 337 338 336 336 334 333 331 333 330 327 322
320 323 335 337 339 341 343 347 348 349 348 344 341 340 341 341 339 340 340 340 338 336 336 336 334 334 334 332 331 329 329 326
324 333 335 336 339 341 345 345 345 343 343 343 342 343 340 336 336 336 337 337 337 336 334 333 334 334 334 333 332 330 328 327
330 330 332 334 337 340 340 340 337 341 341 340 343 342 341 338 337 337 334 334 335 334 334 330 332 335 335 334 333 331 329 328
329 331 331 334 337 337 336 337 336 338 338 340 342 342 337 339 338 335 335 334 333 335 331 332 335 335 334 334 333 333 332 330
329 331 332 334 335 336 336 336 336 337 338 340 340 341 337 338 338 339 336 335 333 334 333 334 335 334 334 332 330 332 332 333
329 330 332 334 335 336 337 336 335 336 338 338 336 338 338 338 338 337 335 335 335 334 331 334 334 332 331 332 333 333 332 332
328 330 332 334 334 336 336 335 334 335 336 338 337 336 333 334 335 334 334 335 333 332 331 330 330 329 332 333 332 332 331 331
327 329 330 330 332 333 333 333 331 334 334 335 336 336 333 335 335 331 335 334 333 332 331 328 330 331 333 330 331 330 330 330

GFSFLT1_sfc_thetae_015.txt.gz
Theta_e
318 316 315 315 317 330 344 345 345 344 342 343 345 345 346 346 344 342 341 338 335 337 333 338 335 342 332 334 332 332 332 332
317 316 317 317 317 318 342 345 345 343 341 341 343 342 343 343 342 339 339 337 335 333 332 333 331 330 329 329 329 330 331 333
318 319 319 319 317 321 335 343 345 343 337 341 342 341 341 341 341 339 337 336 332 331 331 331 331 331 330 331 329 331 332 330
317 318 318 318 318 320 331 339 343 342 338 341 342 342 341 340 340 340 338 335 331 333 334 333 331 332 330 329 329 329 327 328
318 317 318 319 322 322 333 335 338 340 339 337 341 342 341 339 337 339 339 336 333 334 332 331 332 332 331 329 329 329 327 327
318 319 319 323 322 323 329 339 339 340 338 340 339 341 340 338 337 340 339 336 335 334 331 330 333 333 331 329 327 327 326 325
317 320 321 322 324 322 331 337 340 340 339 338 340 339 336 335 334 334 339 338 338 333 332 330 333 331 330 329 328 327 324 324
317 318 321 320 321 328 329 332 341 342 344 339 340 340 335 334 332 333 336 337 337 334 332 331 332 330 329 328 326 326 325 324
316 319 321 320 321 326 330 335 342 345 342 340 337 335 332 332 333 336 336 336 335 333 331 331 330 327 326 326 325 323 321 322
315 316 318 320 321 331 336 341 343 343 343 340 337 334 331 331 333 332 334 333 332 333 331 331 327 326 325 324 323 320 320 320
312 313 313 318 333 336 340 343 342 340 342 341 336 331 331 329 329 331 332 333 332 331 329 328 327 326 323 322 322 320 315 318
314 313 312 329 333 336 336 340 341 341 341 337 333 328 325 327 326 329 332 331 331 330 329 328 326 324 323 322 324 320 318 315
312 313 318 331 333 333 335 339 338 340 337 333 328 327 328 328 328 327 327 327 329 329 328 327 325 325 323 323 322 321 320 317
316 328 330 331 334 335 337 336 335 335 334 330 328 328 326 326 325 325 326 326 326 326 327 325 325 324 324 324 322 322 323 321
324 326 328 331 334 336 335 331 331 332 330 330 328 327 326 325 323 324 324 324 323 323 324 323 324 326 327 326 323 321 321 321
324 325 328 332 333 332 330 328 329 328 330 329 329 327 326 325 325 325 324 323 323 323 323 324 326 327 327 326 325 323 323 322
324 326 330 330 329 329 328 328 328 328 329 329 327 328 327 326 325 324 324 323 324 323 324 325 326 327 327 324 323 322 324 322
323 326 328 329 328 329 328 328 327 328 329 328 327 328 327 326 325 324 322 323 325 324 323 325 325 328 327 325 323 325 324 323
324 326 328 327 329 328 327 327 327 327 327 326 325 327 327 325 325 323 322 323 322 322 324 326 327 326 326 325 324 325 324 324
324 325 326 326 327 327 326 326 326 327 328 327 326 325 327 325 324 326 323 321 322 322 324 326 329 328 325 325 324 324 324 324

GFSFLT1_sfc_thetae_018.txt.gz
Theta_e
318 317 316 315 328 339 341 341 340 337 335 338 343 342 342 342 341 341 341 339 335 335 333 340 342 345 337 340 336 332 330 330
316 316 316 315 316 336 341 341 340 339 336 336 340 340 341 341 341 340 339 333 330 330 330 331 331 332 330 327 326 328 329 331
315 316 316 316 315 317 339 341 340 340 338 338 338 338 340 341 340 339 338 334 332 331 330 329 329 328 328 326 327 328 328 328
314 315 315 315 316 316 334 340 341 341 339 337 338 338 337 338 339 338 337 335 333 331 329 328 329 328 328 328 327 327 327 327
314 315 315 316 317 318 328 338 341 340 338 336 338 338 339 338 337 337 337 335 332 331 330 331 329 329 328 327 327 326 326 327
316 316 315 315 315 317 324 337 340 339 338 336 339 339 339 338 336 337 337 336 333 331 331 328 330 330 328 327 325 324 324 324
314 317 317 318 319 319 322 331 335 337 337 335 338 338 339 337 336 337 337 336 335 333 331 329 330 329 328 327 326 324 322 322
316 316 318 317 318 317 320 332 333 335 333 335 334 334 333 334 335 337 336 336 336 332 330 329 329 328 327 326 325 324 323 321
314 315 316 318 316 318 321 330 332 336 335 336 335 333 331 330 332 335 335 335 335 330 330 329 329 327 325 325 323 322 320 320
314 314 315 316 316 316 323 329 337 338 338 337 335 332 329 330 330 333 333 334 333 331 329 328 327 324 324 321 322 318 318 319
310 311 312 311 315 320 327 333 338 339 336 335 331 329 327 326 327 329 330 332 332 331 328 327 325 324 321 320 320 318 315 316
310 312 309 311 322 331 335 336 337 337 338 336 333 327 324 325 326 326 328 330 330 330 328 326 324 322 320 321 322 319 316 313
309 311 310 323 331 334 337 337 338 337 335 333 330 326 324 325 326 326 324 325 327 328 327 325 323 322 321 321 321 319 317 315
311 320 327 328 332 336 336 337 333 334 332 328 328 325 325 324 323 324 323 324 326 325 326 323 322 322 321 323 322 320 318 317
321 323 326 329 331 332 333 333 329 328 327 326 326 324 325 323 323 323 322 324 320 321 321 322 322 322 324 323 321 320 319 318
322 325 329 330 331 329 329 329 325 327 326 325 325 324 324 323 323 322 321 321 321 320 321 321 323 325 326 325 322 321 320 321
324 328 329 328 327 326 327 325 326 326 326 324 324 324 324 322 322 322 322 321 322 322 322 323 325 325 326 324 322 321 321 321
325 327 326 326 326 325 325 326 326 326 324 326 325 324 323 323 322 321 320 320 321 322 321 323 323 324 325 324 322 321 320 321
324 325 326 326 326 325 324 325 326 325 323 324 324 323 323 323 322 321 320 321 321 322 322 322 323 324 324 323 322 321 323 322
324 325 326 325 324 324 323 324 325 324 323 323 323 323 322 322 321 320 320 319 319 320 321 323 326 326 324 322 322 323 322 322

GFSFLT1_sfc_thetae_024.txt.gz
Theta_e
314 313 316 323 332 333 333 334 336 336 336 335 339 341 340 341 341 340 341 339 340 342 338 341 341 345 343 345 343 340 336 332
312 312 313 313 316 331 334 334 334 334 334 333 334 338 338 338 339 338 338 337 336 337 335 333 335 339 340 338 336 335 334 332
313 313 313 313 313 318 329 335 334 333 332 331 332 334 335 335 337 338 337 336 334 334 333 330 331 334 336 334 332 331 330 329
311 310 311 312 313 313 318 333 336 335 331 331 330 331 334 333 335 338 337 335 333 331 330 329 329 330 333 333 330 329 328 329
311 313 311 312 314 314 313 325 335 335 334 331 329 330 332 332 333 337 337 335 331 331 329 328 329 330 330 329 329 329 328 328
311 312 311 312 312 312 313 321 332 335 335 334 331 330 331 332 333 336 337 334 332 330 328 328 329 330 329 329 328 327 328 328
310 312 312 312 312 313 313 317 327 333 335 336 334 332 331 332 334 336 337 334 333 331 330 331 332 331 329 328 327 328 327 326
309 310 312 313 312 312 312 313 321 330 333 333 331 331 333 333 333 335 335 335 334 332 331 331 331 329 328 328 328 327 327 325
309 311 312 312 312 312 313 313 320 331 331 329 328 330 331 332 334 334 334 334 334 332 331 330 329 329 329 329 327 326 325 326
307 309 309 310 312 313 313 314 324 331 332 330 330 330 330 332 333 335 335 335 334 333 331 330 329 328 328 327 325 322 323 324
306 306 307 309 309 311 313 314 323 329 330 329 327 327 327 327 330 332 334 335 334 333 331 330 328 329 327 325 324 323 321 319
305 307 307 309 309 309 311 314 322 328 330 329 328 324 323 325 329 330 332 334 333 332 330 329 328 327 325 324 324 322 321 318
303 305 306 306 309 308 311 317 327 329 330 329 327 325 323 326 327 328 329 329 331 330 329 329 328 326 325 323 323 321 321 320
302 304 320 322 329 328 329 328 328 329 329 327 325 324 325 325 325 325 325 326 327 328 329 328 326 324 323 323 324 322 321 320
301 315 321 328 328 330 330 329 326 326 327 326 325 326 326 325 325 323 323 323 324 326 325 324 324 323 324 324 323 323 322 320
313 318 326 328 329 328 326 326 324 325 325 323 324 326 326 326 326 325 324 322 323 324 325 323 323 324 324 324 324 323 323 321
320 324 327 325 324 323 324 323 323 323 323 323 323 324 325 323 322 323 323 322 323 323 323 322 323 324 325 325 324 324 324 322
321 323 322 321 322 322 322 322 322 322 322 323 323 323 324 323 323 322 322 322 322 322 322 323 324 325 326 326 325 324 323 322
322 321 321 320 322 322 321 322 322 322 322 322 322 322 323 323 322 322 322 321 321 322 323 323 324 325 325 324 324 324 323 323
321 321 320 320 320 321 320 321 321 322 322 322 321 321 321 321 320 320 320 320 321 323 323 323 324 324 325 324 324 325 323 323

GFSFLT1_sfc_thetae_027.txt.gz
Theta_e
322 322 324 325 331 340 342 344 346 346 344 344 346 348 347 349 347 348 348 345 344 343 341 343 343 346 345 347 346 344 342 341
321 321 322 324 327 331 344 344 345 348 345 343 342 342 344 343 344 349 347 344 343 344 340 341 343 340 344 346 345 345 344 342
322 323 325 326 326 330 332 344 345 346 347 344 342 343 343 343 342 345 346 342 343 342 342 340 341 340 341 344 344 344 342 341
321 323 324 328 328 330 332 337 348 347 345 346 344 343 343 343 342 344 346 343 342 339 340 338 338 338 338 342 343 343 341 340
320 324 327 328 329 331 335 336 342 348 347 346 344 342 341 342 340 346 344 345 344 343 338 338 339 339 341 342 341 341 340 339
322 323 327 329 329 331 334 327 333 347 348 346 343 342 340 340 340 340 343 344 343 341 337 337 340 340 338 338 339 337 338 338
323 322 324 329 332 333 333 333 330 344 347 345 345 345 340 339 340 339 342 342 341 338 337 338 341 335 336 339 338 338 341 340
320 322 324 326 331 334 335 332 333 338 340 344 342 341 338 339 339 340 342 342 340 341 339 340 338 336 336 339 339 340 341 339
318 320 324 326 332 333 335 332 335 331 336 337 338 337 339 338 340 342 342 342 341 341 338 339 338 337 338 340 339 339 336 335
316 319 323 326 328 330 333 332 334 334 337 341 340 340 340 341 340 341 343 342 343 341 340 338 339 336 341 338 336 333 333 330
314 316 320 324 326 329 330 332 333 337 340 341 341 341 337 336 339 340 342 342 342 342 340 337 337 340 337 336 341 337 331 327
313 315 319 322 323 325 325 327 330 336 342 340 340 337 334 336 335 340 339 343 341 341 339 338 340 339 335 340 339 337 334 328
310 312 315 318 320 325 337 333 328 335 341 342 340 339 339 340 340 337 336 341 343 340 340 341 342 337 337 340 337 334 332 330
311 312 315 318 331 335 336 335 333 337 340 341 342 341 339 337 338 334 337 340 340 341 341 342 342 340 339 336 336 335 333 331
313 312 318 330 333 334 333 336 336 338 339 340 341 341 340 340 339 338 338 337 338 339 341 340 338 338 336 335 335 334 333 331
311 318 329 331 334 333 337 337 337 339 338 338 340 340 339 339 340 338 336 337 337 339 339 338 336 335 335 335 333 333 334 332
314 327 331 331 332 337 338 338 337 337 337 337 337 338 339 339 339 340 337 338 336 337 336 335 334 334 335 335 333 334 334 333
324 327 329 332 337 337 338 338 336 336 336 337 336 337 338 337 338 337 337 336 336 335 334 334 333 334 334 336 337 336 334 332
324 327 330 334 335 336 335 335 335 335 335 335 336 335 335 337 336 336 335 335 334 333 332 332 332 333 335 336 336 334 330 333
324 327 331 333 333 333 333 334 334 334 335 335 334 335 335 334 334 334 333 332 332 332 331 331 331 331 333 333 331 331 328 331

GFSFLT1_sfc_thetae_033.txt.gz
Theta_e
333 332 334 333 337 339 342 357 360 356 349 345 351 350 348 347 348 347 348 341 343 341 341 340 343 346 343 346 346 345 344 343
328 329 330 331 332 334 337 343 359 361 351 347 345 347 350 347 347 351 347 344 345 347 341 341 346 342 344 344 343 346 345 346
330 330 332 333 332 335 337 341 358 361 363 351 351 350 349 350 348 351 350 344 346 343 346 342 344 341 341 345 346 347 348 345
327 328 330 333 334 335 336 338 360 360 360 363 361 360 353 352 350 353 353 348 348 345 347 344 343 343 342 343 345 345 344 345
327 329 333 332 334 337 345 346 352 363 365 363 358 350 353 349 350 359 358 354 352 351 347 344 343 346 350 348 350 346 343 343
328 329 331 336 339 339 346 337 345 360 362 359 354 349 347 347 348 351 358 358 356 354 345 345 346 345 344 340 341 338 342 341
330 329 331 333 337 340 342 347 340 354 359 350 352 357 349 346 347 347 357 356 354 353 348 346 352 344 342 340 340 342 339 339
326 329 330 332 340 345 346 343 349 356 348 354 343 342 346 348 347 347 357 354 352 354 349 349 349 343 341 340 343 340 340 338
326 328 329 329 338 342 346 346 352 347 337 336 336 335 342 346 348 357 355 353 353 354 348 349 348 343 344 346 343 344 339 343
323 325 329 333 336 339 343 346 351 352 341 344 339 345 342 346 348 355 353 351 352 351 350 348 349 342 348 347 345 336 337 343
322 322 328 332 334 338 339 344 349 352 350 347 351 350 351 345 347 347 350 349 350 351 349 350 351 346 339 346 343 342 336 341
319 322 325 329 331 334 339 342 348 351 357 345 352 343 341 343 347 348 348 350 347 348 348 347 348 344 345 342 343 344 344 337
317 319 321 324 329 333 338 344 348 350 352 349 342 349 344 346 347 350 350 350 349 346 347 347 346 344 347 347 349 348 342 336
317 319 323 322 325 325 334 342 345 349 350 353 356 355 353 347 347 344 345 344 345 345 345 346 348 346 352 347 349 345 342 340
317 317 318 321 323 325 326 331 340 347 346 348 349 355 360 357 348 342 341 340 341 344 348 348 345 351 348 348 345 344 341 337
319 319 320 321 324 332 336 339 342 345 344 347 350 353 349 349 347 343 343 343 345 350 349 350 348 346 344 345 341 338 340 335
321 324 324 322 328 339 342 343 344 344 346 347 350 350 354 347 353 354 347 352 348 348 348 346 345 343 343 344 337 337 339 339
324 324 326 335 342 344 346 346 345 347 348 348 349 351 352 350 352 345 347 351 350 347 345 344 343 342 340 340 338 337 337 342
325 332 337 342 344 345 346 346 346 346 347 347 347 345 346 347 346 346 346 348 344 342 341 340 338 337 337 338 338 336 335 337
329 334 338 340 342 343 344 345 345 345 344 344 344 345 346 346 344 343 343 342 341 339 337 335 334 333 336 336 335 334 334 333

GFSFLT1_sfc_thetae_036.txt.gz
Theta_e
330 330 332 333 337 337 345 355 353 349 345 347 349 345 344 345 343 342 342 340 338 338 336 338 343 347 343 346 346 345 342 341
330 331 332 339 333 332 345 355 358 357 351 350 350 347 345 342 342 342 340 339 338 337 336 338 338 340 338 339 340 341 341 342
331 334 338 344 345 345 345 357 359 361 363 358 351 349 348 345 344 343 341 341 337 337 340 339 338 339 338 337 340 341 342 343
330 333 335 339 344 355 347 349 362 361 359 360 362 355 352 351 347 346 344 341 341 340 338 340 342 340 340 338 340 340 343 344
325 330 333 340 341 348 348 350 365 361 358 359 357 359 352 353 350 352 347 346 343 340 341 339 338 343 342 339 339 344 345 343
327 332 335 341 339 339 343 335 346 360 359 359 358 354 354 352 351 353 355 348 345 346 342 342 343 340 341 342 339 339 339 339
328 331 333 339 342 345 349 351 349 360 362 359 358 356 355 351 351 351 355 353 348 345 345 345 345 342 341 338 339 340 337 340
328 332 333 337 344 347 350 351 354 356 357 356 350 349 347 349 348 348 355 353 352 348 347 345 350 341 339 341 337 338 338 338
326 330 330 339 343 345 349 349 349 350 348 344 342 339 340 344 349 354 357 355 352 351 346 349 344 343 339 341 339 337 337 339
324 325 328 339 340 343 346 349 351 349 344 343 343 343 340 341 348 354 356 356 352 350 349 345 346 343 341 342 338 335 338 339
322 325 332 337 337 341 342 343 344 345 344 345 348 348 349 349 352 352 353 354 353 351 349 347 347 343 340 340 340 336 332 336
319 322 325 332 335 337 344 345 342 343 348 344 344 338 337 344 352 351 351 352 351 350 349 347 349 343 342 341 340 338 336 335
318 320 322 326 327 328 332 335 340 343 344 344 341 346 345 351 350 354 350 352 350 347 348 346 348 342 342 339 340 338 338 338
316 319 322 322 326 329 333 338 339 345 345 349 347 345 343 346 351 346 346 346 345 344 346 344 345 342 343 342 340 341 341 338
317 316 317 321 324 326 333 340 343 344 344 344 347 343 353 353 351 345 343 342 342 341 342 344 341 344 346 346 343 340 339 335
318 321 324 321 323 329 332 333 337 340 343 347 349 348 352 354 348 344 342 340 341 343 344 343 344 345 346 344 341 339 338 336
318 319 324 322 324 332 334 336 337 345 348 348 351 351 354 349 348 344 343 343 342 342 346 345 346 344 343 341 339 338 338 336
318 323 326 330 334 342 347 349 347 347 348 350 350 351 353 349 347 344 346 347 346 345 345 344 343 342 340 341 339 338 337 336
329 325 328 337 342 345 347 346 346 345 346 347 350 350 349 350 348 346 347 347 345 344 343 341 340 340 340 338 338 335 334 334
330 331 333 335 340 342 344 345 344 344 344 343 343 343 343 343 343 342 344 344 343 341 341 338 337 337 338 337 335 334 332 333

GFSFLT1_sfc_thetae_039.txt.gz
Theta_e
328 327 331 330 333 348 348 346 343 339 338 341 345 344 343 343 340 338 339 337 335 338 334 338 337 344 341 344 344 344 341 339
326 326 328 333 334 344 349 346 342 339 338 340 342 340 340 339 340 337 337 335 333 329 331 331 332 337 336 334 337 339 337 338
326 329 329 331 332 335 338 345 343 341 338 342 342 340 339 338 338 338 337 335 331 330 329 330 331 335 336 332 333 336 336 337
320 325 327 327 327 329 341 346 346 344 343 344 343 343 341 340 339 338 337 336 334 331 330 331 331 334 335 332 333 335 336 337
320 321 323 326 327 327 337 347 351 351 347 347 348 343 344 343 341 340 338 336 335 333 331 331 332 333 334 333 332 335 335 339
320 322 321 324 326 325 330 349 353 350 349 349 347 348 347 345 345 343 341 339 336 335 334 332 334 334 334 333 332 333 336 335
317 321 323 324 325 324 324 329 350 350 350 350 349 347 345 345 343 344 345 341 340 338 335 336 334 334 334 334 332 331 330 330
318 319 324 325 328 326 332 332 340 348 351 348 347 347 346 344 343 341 343 345 343 338 339 336 336 335 332 333 330 332 330 333
317 318 320 324 330 330 332 332 334 339 338 343 340 338 336 336 338 340 340 348 345 341 338 339 340 335 335 332 330 328 330 332
315 317 318 322 328 328 330 330 330 330 330 332 331 330 330 331 333 339 341 346 347 343 341 340 338 336 333 331 331 327 330 330
314 315 319 320 326 328 332 331 331 329 330 332 331 331 330 331 334 336 342 347 347 345 343 340 338 336 334 332 331 328 326 328
312 313 314 317 324 325 328 330 331 333 333 330 330 331 329 328 326 340 342 345 345 344 344 341 339 337 333 333 334 329 327 324
309 311 312 315 321 322 327 330 330 329 331 332 331 330 330 330 333 339 340 340 343 343 342 340 338 338 336 335 333 330 329 329
308 309 313 313 315 316 317 322 329 329 329 334 331 329 331 332 337 337 337 338 338 340 342 342 340 339 338 336 336 332 331 331
309 308 309 311 312 313 316 319 319 327 332 334 333 331 332 330 338 338 336 335 334 335 338 339 339 339 339 336 333 333 331 329
306 310 311 311 312 312 314 319 327 332 332 336 336 333 332 337 341 338 336 336 336 337 337 340 340 340 340 336 334 333 332 328
306 308 311 311 311 314 317 319 325 331 333 334 335 337 335 340 338 337 337 336 338 337 340 340 340 339 337 335 334 330 331 328
307 310 311 313 313 315 317 320 324 329 334 337 340 341 343 340 338 336 336 335 337 337 339 338 338 337 337 334 330 329 328 326
309 321 321 317 324 330 332 336 336 337 339 339 341 341 343 340 337 337 337 337 337 338 338 337 337 335 333 329 328 327 327 326
317 324 325 326 334 335 336 337 337 338 340 341 340 342 342 341 339 340 340 338 339 339 338 337 335 334 332 327 326 328 327 325

GFSFLT1_sfc_thetae_042.txt.gz
Theta_e
328 326 332 335 341 343 341 339 339 341 340 343 344 344 343 343 341 340 338 336 336 339 334 339 336 344 339 343 342 343 340 338
327 326 331 333 341 345 346 344 339 335 335 339 340 340 341 340 340 337 336 333 331 330 331 332 332 334 334 334 336 339 337 338
326 329 332 333 340 347 348 347 342 340 334 337 338 337 337 337 337 337 336 334 331 330 331 328 330 331 335 333 332 336 337 337
324 328 330 331 331 336 342 341 341 342 338 336 337 338 337 334 335 335 336 334 331 330 328 328 328 331 334 333 330 332 334 334
324 326 327 329 330 331 337 334 335 336 339 339 338 339 338 337 336 335 336 334 332 329 328 327 328 330 331 332 328 330 331 333
315 321 324 326 329 327 332 340 342 342 341 342 342 341 341 339 338 337 336 335 333 331 329 327 329 330 331 331 329 328 330 331
315 317 320 321 324 327 332 340 342 344 344 345 344 344 342 342 341 339 338 337 335 333 331 331 329 331 331 331 330 328 328 330
315 317 318 319 322 323 325 339 343 344 345 343 344 342 345 343 342 342 340 339 338 334 334 332 330 330 331 330 330 329 326 330
315 317 317 317 319 322 322 324 340 343 343 342 342 342 342 339 340 341 341 343 340 336 335 333 333 330 331 331 329 328 327 329
311 315 313 313 316 322 325 327 332 343 344 344 340 341 334 341 342 339 340 342 344 340 336 335 334 333 329 330 330 324 328 328
307 311 314 312 314 322 325 328 332 340 339 332 329 328 327 328 329 329 333 337 344 342 339 336 337 336 332 330 331 327 324 326
306 310 312 312 316 322 326 328 328 329 327 328 327 327 324 324 323 328 331 337 342 343 340 338 338 336 333 331 331 330 329 327
303 307 309 310 313 320 324 326 326 326 327 326 325 321 323 324 325 327 330 336 341 343 341 338 336 335 333 332 331 331 330 329
302 306 308 309 310 316 320 323 326 327 325 325 324 323 325 326 326 329 331 334 336 341 341 339 337 337 334 333 334 334 330 331
302 302 304 307 307 311 316 321 324 325 324 324 327 326 326 327 328 331 332 332 332 336 338 338 337 339 337 334 335 332 331 329
303 305 305 306 308 308 312 314 317 321 325 324 327 327 328 328 331 334 335 337 335 336 336 336 336 336 336 336 334 333 331 328
303 307 311 310 309 308 308 309 314 317 321 326 328 329 328 332 334 334 335 334 335 334 335 335 336 339 338 336 332 331 331 326
304 306 310 314 315 309 307 309 312 320 326 329 332 331 331 334 336 335 335 335 336 334 334 334 338 338 336 334 330 332 330 324
303 305 306 308 320 316 309 311 318 325 329 331 333 335 335 335 336 335 335 334 334 334 334 336 336 334 331 330 331 329 326 324
303 303 304 306 315 325 324 326 327 330 332 335 336 339 336 334 334 336 336 333 334 336 336 336 336 334 332 330 326 326 324 323

GFSFLT1_sfc_thetae_045.txt.gz
Theta_e
329 329 329 329 334 337 339 339 340 339 339 339 339 340 340 343 341 342 341 338 338 341 335 338 336 344 336 342 340 341 337 336
324 324 329 335 336 337 339 337 337 337 335 338 339 338 337 337 338 336 336 334 333 334 333 332 332 332 332 332 334 336 336 336
324 328 331 333 338 339 340 338 336 335 333 333 335 337 336 335 335 335 335 333 331 330 330 328 329 328 330 330 330 332 334 334
323 327 329 333 339 342 343 341 338 336 334 332 334 336 335 333 334 336 335 333 330 329 328 327 325 328 330 331 330 330 332 332
322 326 328 333 338 344 344 342 342 340 338 334 334 335 335 333 332 333 335 333 329 328 326 326 326 327 327 329 327 326 327 328
318 324 325 328 327 329 342 345 339 337 337 336 336 336 336 335 334 333 334 333 330 327 327 325 326 326 328 329 326 325 326 326
312 317 323 324 325 326 325 332 332 330 332 336 337 337 337 337 336 335 334 334 332 330 328 327 325 327 327 328 326 326 324 325
309 313 316 319 322 324 323 326 333 333 334 334 337 338 339 339 338 337 336 336 335 331 331 328 326 327 327 327 327 326 324 326
307 311 315 317 319 319 320 320 328 335 336 335 337 337 340 340 340 339 338 337 336 332 332 330 328 327 328 328 327 324 323 325
305 307 311 314 316 318 320 321 323 334 340 340 340 339 340 342 342 339 340 339 338 336 333 332 330 328 326 328 327 323 324 326
301 304 307 311 312 313 317 320 321 324 339 340 328 329 328 333 332 334 338 340 341 339 336 334 331 331 328 328 329 326 322 324
299 301 302 305 308 310 313 319 323 325 334 337 336 335 334 327 334 336 332 336 338 340 338 335 333 333 331 329 330 328 326 326
298 299 301 304 306 308 313 317 321 326 332 337 336 330 327 323 321 323 326 327 333 339 339 336 334 335 332 330 328 328 331 329
302 303 304 305 305 305 309 316 320 323 326 331 331 332 322 321 321 322 323 327 332 336 337 336 335 335 332 332 333 332 331 331
300 301 303 306 307 305 305 312 318 321 323 326 325 323 322 323 322 323 324 327 330 333 335 334 335 335 334 333 334 333 331 330
299 301 303 305 307 313 312 305 314 319 322 323 324 323 322 322 322 325 327 330 330 335 337 336 335 336 335 334 334 333 332 331
298 301 303 304 306 307 310 314 307 316 321 322 319 322 322 322 324 328 330 330 332 334 335 335 335 335 334 332 332 332 331 328
299 301 303 304 305 305 310 314 307 310 316 321 322 323 324 325 327 330 331 331 333 334 334 334 334 334 334 334 332 331 327 326
300 301 304 303 303 305 312 317 309 307 313 317 321 325 326 329 331 331 332 333 333 334 334 333 334 333 335 333 331 329 328 325
300 301 303 302 302 310 313 320 312 313 320 324 327 329 331 331 331 331 332 331 333 335 336 336 335 335 332 330 327 328 325 322

GFSFLT1_sfc_thetae_048.txt.gz
Theta_e
327 331 326 328 331 334 338 340 341 342 342 341 344 343 348 348 346 347 348 343 344 345 340 344 341 347 339 344 344 344 341 339
321 327 330 327 329 332 336 338 338 338 336 337 339 341 339 339 340 340 341 337 336 337 336 336 336 336 336 335 337 339 339 338
319 325 330 334 332 334 335 337 337 338 335 337 338 339 338 338 337 336 337 335 333 333 334 332 333 332 333 333 333 334 336 337
316 324 327 331 336 335 338 336 336 337 335 333 336 338 338 336 336 337 337 335 333 331 331 331 329 330 331 332 331 331 333 335
310 319 325 330 336 338 338 337 335 333 334 333 333 334 336 335 335 336 336 335 332 331 329 329 329 328 329 331 330 330 330 332
308 312 322 329 332 339 341 340 338 334 331 330 330 331 334 333 333 333 335 335 333 331 328 327 328 327 328 329 329 328 328 328
305 307 314 324 327 329 336 342 340 338 338 336 336 335 333 333 334 333 333 334 334 330 328 328 326 327 327 328 328 329 326 327
304 306 308 311 320 327 329 332 336 333 332 334 335 335 336 336 336 335 334 334 333 331 329 328 326 326 327 327 328 328 327 328
304 306 307 311 313 318 323 323 329 334 332 332 333 334 336 337 338 339 336 336 335 332 331 329 327 327 328 328 328 327 326 329
302 304 306 306 310 313 316 320 324 329 334 336 335 336 336 339 340 339 338 337 336 335 333 331 329 328 328 328 328 326 328 329
299 302 303 304 305 310 313 315 319 321 331 334 332 332 331 335 336 339 339 339 339 337 334 334 331 331 328 329 329 328 325 327
300 302 302 303 303 306 308 311 314 318 321 332 332 334 332 335 337 339 338 341 341 339 337 336 334 332 331 329 331 330 329 326
300 301 302 304 306 304 305 308 311 316 319 325 332 332 333 334 329 334 334 334 339 340 340 337 335 333 334 331 331 329 330 329
300 301 303 303 305 306 304 305 310 317 321 324 327 330 332 326 325 326 328 328 330 334 338 338 337 335 334 332 332 331 331 333
298 298 299 301 303 306 308 310 308 312 320 325 331 332 333 329 329 328 323 324 328 331 335 335 335 336 335 334 333 333 333 332
296 297 299 301 303 305 308 307 309 311 315 321 326 331 332 331 329 325 324 325 329 333 336 337 337 337 336 336 335 335 334 333
295 297 299 300 302 304 305 305 306 312 310 317 321 324 325 323 323 324 324 328 331 334 337 336 337 337 337 336 335 334 334 332
298 297 300 302 303 305 305 304 306 314 312 314 319 321 323 324 323 324 328 330 334 334 335 337 337 338 337 335 334 334 332 331
297 299 301 302 303 304 304 304 309 314 315 311 317 320 322 323 325 326 330 331 334 335 336 337 337 336 336 335 334 332 330 330
298 299 301 301 302 303 302 308 312 316 318 311 314 320 323 325 327 329 332 333 335 336 336 336 337 336 335 334 332 331 330 327

GFSFLT1_sfc_thetae_051.txt.gz
Theta_e
321 334 334 333 334 338 343 350 353 352 350 353 354 354 354 354 354 355 355 352 352 352 349 347 346 347 341 343 342 341 341 341
320 320 333 334 334 335 341 346 350 352 349 350 351 350 353 350 350 351 351 348 349 350 348 347 348 344 343 342 339 341 342 341
320 327 335 338 333 335 338 343 346 347 348 346 348 348 349 349 349 352 351 347 347 348 348 346 345 343 341 341 339 340 339 339
316 324 332 337 339 337 339 341 345 346 345 347 347 348 348 348 347 349 350 348 348 345 346 344 343 343 341 339 339 337 337 337
314 317 324 333 339 343 343 343 345 346 342 344 344 343 343 343 344 347 346 347 346 346 342 341 341 342 342 340 340 339 336 336
313 314 318 327 337 342 345 339 341 342 343 342 340 339 341 341 341 341 344 343 342 342 339 338 339 339 337 336 336 335 334 334
315 314 317 320 330 341 346 347 341 341 341 342 341 339 337 339 339 339 341 340 341 340 338 339 340 336 335 335 335 335 334 335
312 313 316 318 323 332 342 349 349 345 343 341 338 339 338 338 338 339 340 340 339 338 338 338 338 334 335 336 337 338 337 336
310 312 315 316 320 322 329 339 348 348 345 341 340 336 341 343 343 344 343 339 338 339 340 338 338 337 338 339 339 338 337 338
308 310 314 317 317 320 322 327 336 343 344 346 345 343 345 345 345 345 345 341 343 344 345 343 342 339 340 340 340 338 338 339
306 309 313 316 317 319 320 322 326 334 341 346 347 346 346 344 346 347 348 346 347 348 347 346 344 342 341 342 341 341 338 337
306 310 312 313 315 317 320 322 323 324 334 338 345 342 340 344 346 348 349 348 348 349 350 347 346 344 345 343 342 341 341 337
307 309 310 311 314 315 319 321 323 326 327 333 335 341 341 345 345 352 354 351 351 350 351 348 347 346 345 345 341 342 341 339
309 309 310 311 312 314 316 319 323 325 325 328 332 338 342 340 342 341 343 346 349 351 350 350 349 347 346 345 344 343 342 341
307 307 308 310 311 314 315 317 320 322 323 325 329 334 338 340 341 339 341 340 342 347 349 348 347 349 349 347 344 344 343 341
306 307 308 308 310 313 315 316 317 319 320 323 329 333 333 336 340 338 339 339 341 348 346 348 348 347 347 346 343 343 345 343
306 307 308 308 310 312 314 315 317 318 318 323 327 330 335 338 345 347 341 345 341 344 345 346 347 347 347 347 344 345 345 345
306 307 307 309 311 312 315 316 316 317 318 322 326 329 333 337 341 341 343 341 341 342 345 347 347 347 349 348 347 347 346 344
304 305 307 309 310 311 314 314 316 316 318 322 326 328 332 333 335 337 339 341 341 341 343 345 346 348 348 348 347 346 344 341
304 305 307 309 309 311 312 314 314 315 319 322 326 329 331 331 332 335 338 339 341 341 343 344 347 347 348 346 345 343 340 338

GFSFLT1_sfc_thetae_054.txt.gz
Theta_e
321 325 331 336 339 341 344 351 358 351 346 348 351 350 351 353 354 356 355 352 354 351 348 348 346 347 341 344 343 341 340 339
320 323 325 337 337 339 344 349 353 357 349 349 349 347 350 350 352 357 354 352 353 351 346 346 347 343 343 341 340 342 342 341
320 323 330 332 339 339 341 346 352 354 355 349 349 348 348 350 350 355 353 350 350 350 348 347 345 345 343 343 341 341 341 342
317 320 324 333 333 341 341 343 347 353 354 355 351 354 352 351 349 351 354 351 350 347 349 347 346 345 343 342 341 340 339 339
316 319 322 328 331 337 346 347 349 353 354 352 350 348 348 347 348 352 353 355 353 352 346 344 344 348 349 346 344 342 339 337
315 317 319 324 330 339 347 344 346 353 354 351 347 343 344 343 344 345 351 352 352 351 344 345 344 345 343 340 340 338 337 339
314 316 318 322 326 333 342 350 345 350 353 349 349 352 344 340 342 341 347 348 348 348 343 342 351 342 340 340 339 340 340 341
313 315 318 320 325 330 337 349 352 348 349 348 343 341 342 342 341 341 344 346 344 344 341 344 346 342 339 341 345 344 343 343
312 315 318 318 322 326 329 339 350 353 349 342 340 336 339 339 340 347 345 344 343 346 341 342 343 343 344 346 346 346 344 347
311 313 316 319 322 326 327 327 336 346 352 352 350 348 344 341 341 348 347 344 346 344 346 346 348 345 347 349 349 345 346 348
309 311 314 319 319 322 324 329 332 333 340 347 350 351 351 348 347 347 348 348 347 349 350 350 357 352 347 351 351 349 343 347
309 311 312 316 317 319 322 327 329 331 335 339 348 341 341 344 348 351 353 353 350 350 353 354 361 354 356 353 351 350 350 344
308 309 312 315 316 319 322 325 328 332 335 337 333 345 341 345 346 356 364 362 355 352 355 359 359 354 357 358 353 352 348 345
310 311 312 314 316 316 320 323 326 330 333 333 336 337 344 339 343 343 346 349 353 356 355 357 360 357 357 354 355 352 350 350
310 310 311 312 313 316 318 319 322 325 328 328 331 336 339 345 349 343 344 340 343 357 357 360 357 358 357 355 354 352 352 349
310 311 312 312 313 314 316 318 320 323 325 328 329 333 332 335 341 338 338 339 342 359 355 356 356 356 355 356 351 349 351 350
310 311 312 313 314 315 316 317 319 322 323 326 329 330 335 337 345 345 341 346 344 351 352 354 355 356 355 354 347 350 350 350
309 310 311 313 314 315 317 320 320 322 324 325 325 327 332 337 342 346 350 353 351 349 351 352 354 352 351 353 350 353 350 350
308 310 312 312 314 314 316 317 319 320 321 323 325 327 331 334 337 341 345 349 348 346 348 349 349 349 351 353 354 352 351 351
309 310 311 311 312 314 315 317 318 319 320 321 323 326 330 334 336 341 342 344 347 347 347 347 346 347 352 352 352 350 350 348

GFSFLT1_sfc_thetae_057.txt.gz
Theta_e
322 323 328 336 343 342 342 354 360 352 345 349 349 348 350 352 352 357 356 349 350 346 345 344 346 348 341 344 342 340 338 337
321 323 326 333 339 342 343 350 355 360 348 345 349 344 349 348 350 359 358 351 357 356 346 347 353 343 344 342 341 346 343 341
321 323 325 331 335 341 344 347 354 359 363 349 349 347 347 348 349 355 353 350 358 354 355 347 349 346 344 346 344 345 343 342
319 321 322 331 334 340 342 345 358 358 358 365 357 355 351 350 350 354 359 354 359 350 352 347 346 345 344 345 346 344 342 341
318 320 321 325 332 336 347 348 354 361 363 360 358 351 350 349 351 361 359 361 360 357 347 347 348 351 361 353 349 346 341 340
318 319 322 326 327 335 345 343 349 356 358 357 354 351 352 348 351 352 357 360 359 358 348 349 351 351 346 348 345 340 339 340
319 319 320 323 326 329 344 352 347 355 355 354 355 356 349 349 351 350 355 355 355 356 351 350 355 346 345 348 346 345 343 342
317 319 319 320 324 330 334 344 351 354 353 353 349 349 348 346 344 345 349 353 353 355 350 351 349 346 343 345 346 347 344 344
315 317 317 319 324 328 329 332 349 349 350 345 346 343 344 345 346 351 351 352 352 352 348 347 348 346 348 352 348 349 345 349
314 315 317 320 321 326 327 331 333 346 346 346 347 345 342 342 344 343 348 350 351 350 347 344 348 344 353 353 352 345 347 350
313 314 316 318 321 321 323 329 333 337 345 351 353 357 358 349 345 344 346 347 349 348 350 342 344 350 348 353 354 354 344 348
311 313 314 317 319 319 322 325 331 334 342 339 344 346 343 346 350 349 346 352 351 351 347 349 352 352 353 356 356 355 354 345
310 311 313 315 318 320 322 327 327 335 337 339 338 340 343 341 337 345 354 355 348 349 349 354 359 356 359 359 364 361 352 347
311 314 314 315 317 318 320 323 330 330 332 338 342 342 341 339 343 343 343 348 350 356 352 359 361 361 362 362 365 363 357 355
311 313 312 312 314 315 317 319 321 327 331 330 336 339 343 345 341 343 344 342 346 359 356 361 359 366 364 363 364 362 359 353
311 312 313 313 314 315 316 318 319 322 324 328 333 337 329 331 339 338 341 344 349 360 364 360 364 363 363 364 358 356 358 354
311 312 313 313 314 316 317 317 320 322 323 329 333 334 336 334 343 349 338 345 345 353 364 362 363 361 362 363 356 358 357 357
310 312 313 314 315 315 319 322 321 320 325 327 326 330 333 336 341 344 345 349 349 348 354 358 358 360 361 361 358 359 355 352
310 311 313 314 315 316 319 317 319 320 321 325 327 327 327 333 336 341 343 350 352 352 349 352 355 357 358 360 357 353 353 355
311 311 312 312 313 315 315 318 316 318 319 322 324 327 329 333 335 339 343 347 349 349 349 349 350 355 358 356 351 348 351 349

GFSFLT1_sfc_thetae_060.txt.gz
Theta_e
321 321 326 330 335 341 347 350 352 349 346 355 351 352 352 353 354 354 353 350 351 346 346 343 346 350 343 346 344 343 337 336
318 320 324 328 340 338 348 350 353 355 348 353 349 348 349 350 351 353 353 350 349 351 345 343 344 343 340 339 339 339 337 338
321 322 329 335 341 343 346 352 354 352 361 350 349 346 348 349 351 352 353 348 352 352 355 350 348 346 343 341 339 343 341 341
320 323 326 332 337 344 349 350 357 357 358 362 364 347 349 349 350 351 352 354 349 354 354 354 351 351 348 344 345 345 345 342
318 325 328 335 336 348 343 354 355 356 358 362 360 360 352 348 349 353 352 354 357 352 351 350 350 351 354 354 351 350 346 343
319 324 329 331 335 340 343 344 352 355 355 355 359 358 353 355 353 358 355 354 357 358 351 349 349 352 351 348 347 344 342 339
320 323 329 333 335 339 344 353 354 352 356 353 356 358 356 356 358 352 356 357 353 353 351 349 353 351 348 348 348 346 341 340
320 324 326 329 335 337 342 348 353 354 352 354 352 353 352 352 351 349 352 352 353 352 351 352 355 348 345 346 346 345 342 341
319 323 324 325 332 338 337 345 351 350 348 345 344 345 345 344 345 345 347 348 350 351 350 349 350 345 343 345 345 342 340 345
316 320 323 325 334 336 338 340 347 348 344 348 345 345 346 347 344 346 349 348 349 348 348 346 345 342 342 341 344 340 341 344
315 317 320 323 327 334 332 338 341 344 351 350 349 349 350 349 342 342 342 343 342 347 348 345 343 342 339 342 345 344 338 345
315 317 320 322 326 328 331 334 334 339 343 346 348 345 338 343 346 347 344 346 345 348 345 345 342 344 341 342 347 346 344 339
312 314 316 321 323 325 329 333 334 332 339 341 340 341 342 337 338 343 339 336 349 346 346 345 343 344 343 345 345 348 349 346
312 315 317 318 323 324 327 331 328 332 334 339 342 340 339 340 339 333 335 335 334 337 348 344 343 342 340 346 349 351 352 351
311 313 313 316 318 321 323 325 330 329 331 333 332 337 337 337 339 339 333 333 336 336 344 336 334 333 334 336 332 348 356 351
311 314 315 314 316 319 321 325 326 328 330 330 331 332 335 332 333 333 335 340 337 336 341 338 333 334 336 337 341 353 356 355
312 314 316 316 320 322 322 320 324 324 326 329 333 333 333 330 333 336 336 342 340 342 342 339 337 341 348 347 353 354 355 354
311 312 315 318 321 320 325 325 322 323 324 326 325 329 331 332 334 334 335 336 338 343 342 349 350 352 353 356 355 355 354 353
309 311 314 317 317 317 322 324 324 321 322 324 327 326 329 331 331 332 332 338 340 341 341 345 350 354 355 355 355 354 352 350
310 310 312 312 313 314 316 320 321 320 321 323 325 327 330 330 328 331 336 335 340 340 343 343 342 343 350 353 353 353 350 347

GFSFLT1_sfc_thetae_063.txt.gz
Theta_e
314 315 320 328 334 338 343 347 348 346 351 352 352 352 351 351 351 349 346 345 343 343 338 341 341 348 342 346 344 343 340 336
312 314 319 322 334 336 341 345 345 343 350 349 348 348 348 348 348 349 345 340 337 339 337 336 338 338 337 333 336 337 336 334
312 315 318 322 328 336 342 344 343 342 348 346 344 345 344 345 345 347 345 341 340 339 337 336 337 337 337 334 333 334 334 334
310 313 315 320 327 334 343 345 344 343 346 345 341 341 344 343 345 345 346 341 339 341 341 342 341 340 339 336 334 333 336 336
310 313 314 322 326 332 341 346 349 345 348 351 349 342 343 343 344 344 345 345 338 339 343 341 342 342 341 338 336 338 337 337
310 312 316 325 327 328 332 344 348 345 348 349 348 349 347 342 343 345 347 345 347 343 344 343 341 341 341 339 337 335 335 333
310 316 318 326 327 328 332 340 346 348 348 351 349 348 348 347 346 348 347 346 348 348 345 342 343 341 341 338 338 336 334 333
310 319 319 324 322 323 327 339 342 346 347 347 349 347 347 346 343 343 349 350 348 346 345 343 342 342 337 335 336 338 334 333
310 317 317 322 322 322 323 333 339 343 343 342 341 342 342 342 343 342 342 347 350 347 344 344 344 340 336 336 334 335 332 335
309 312 314 316 316 323 323 324 334 339 341 341 339 340 342 341 340 340 340 340 344 347 347 344 343 337 335 336 335 332 334 336
307 310 311 314 319 321 323 326 328 334 341 339 338 341 342 340 338 338 340 341 341 344 345 343 341 337 335 333 334 336 334 335
306 308 310 311 313 318 319 320 322 325 329 339 336 332 336 339 338 337 337 339 339 341 344 344 339 338 336 334 339 339 338 337
305 308 311 314 316 314 314 316 319 321 323 327 335 336 337 337 337 340 338 337 343 342 342 342 339 337 337 338 337 338 342 341
305 307 308 308 313 315 313 315 317 318 322 325 326 327 329 333 333 331 333 336 334 336 345 342 341 340 338 341 341 341 337 334
305 305 305 306 307 310 314 316 314 315 317 319 320 322 326 325 328 331 333 331 332 333 334 341 341 341 341 336 338 332 327 326
304 305 305 306 308 307 308 309 311 314 317 318 321 320 325 324 326 327 325 332 332 332 333 337 337 335 329 331 332 329 329 327
303 306 306 305 307 307 308 307 309 309 309 314 316 318 321 322 322 325 328 331 336 337 336 338 336 335 332 331 331 330 328 331
304 305 306 306 307 309 308 308 308 309 309 310 314 317 318 320 322 324 324 323 326 330 336 336 336 338 338 335 333 334 333 332
302 302 304 307 307 306 308 312 312 311 311 310 312 314 316 319 322 323 326 327 328 331 334 334 337 338 338 336 334 335 338 339
301 302 303 304 304 305 306 307 309 311 313 313 313 316 317 319 319 321 324 325 327 330 334 335 337 339 342 337 338 343 345 346

GFSFLT1_sfc_thetae_066.txt.gz
Theta_e
312 321 341 341 344 345 347 350 351 351 352 352 353 354 354 353 352 350 347 346 346 345 341 343 341 347 340 344 342 342 338 337
310 314 326 330 337 344 345 348 348 349 351 351 350 350 350 349 349 347 345 343 340 339 337 336 336 336 337 335 336 336 337 336
311 311 316 328 331 340 344 346 346 343 349 349 349 348 348 347 346 346 344 340 337 338 334 334 335 333 334 332 331 333 333 333
309 309 310 319 330 335 342 343 344 343 347 345 347 347 347 346 345 346 343 340 337 334 335 334 333 333 333 333 331 331 331 331
309 309 309 317 326 335 338 342 342 342 344 342 342 344 344 344 344 344 345 339 336 338 336 337 336 336 336 335 334 332 330 333
310 309 310 315 324 333 337 344 341 343 344 344 341 340 342 342 343 344 345 345 338 336 340 339 339 340 339 337 337 335 334 333
308 311 312 320 324 326 328 343 344 342 346 347 347 342 342 342 343 343 344 345 345 338 336 340 341 338 337 337 336 334 332 330
308 313 320 323 323 327 334 339 344 345 343 342 342 344 345 343 342 343 345 344 345 346 344 340 340 339 338 336 333 335 334 332
312 316 320 319 319 320 327 332 335 343 342 339 338 339 340 340 342 344 346 345 345 345 346 343 340 338 337 336 332 332 332 332
310 314 316 315 317 317 320 328 335 336 341 340 337 337 338 339 340 341 344 348 347 345 343 342 342 340 337 335 333 330 332 334
306 312 312 312 316 318 320 322 329 335 336 337 336 338 337 336 336 336 338 342 345 348 346 345 341 341 339 334 333 332 329 333
304 309 309 312 315 318 320 322 324 324 326 333 331 330 331 333 333 334 336 340 340 340 342 345 344 341 339 335 334 335 335 332
302 307 310 310 316 314 315 316 317 318 320 324 330 332 331 331 334 336 334 336 338 339 340 342 342 340 340 336 335 335 337 335
303 306 309 311 310 310 311 312 313 315 318 321 324 325 326 328 331 330 333 334 334 337 341 340 341 339 337 338 338 336 336 340
304 307 308 310 309 308 310 311 312 313 315 316 318 323 325 324 326 329 328 329 330 334 335 340 340 340 339 338 338 338 339 336
305 305 307 309 308 309 312 310 310 311 313 314 315 315 317 320 321 322 327 328 330 331 332 333 337 339 339 338 337 338 330 328
303 303 304 304 304 307 309 309 310 312 313 312 312 314 313 315 318 320 321 322 328 332 331 331 332 335 332 331 331 331 331 329
301 302 302 303 304 304 305 308 308 306 306 307 309 310 313 314 314 315 318 320 321 323 330 332 334 336 334 331 329 329 329 329
301 301 302 303 304 304 305 304 305 305 305 305 305 308 311 313 314 315 317 319 321 323 327 328 332 333 335 334 334 333 331 331
301 302 305 303 302 305 306 308 309 308 308 308 308 309 310 309 311 314 317 319 320 322 323 326 330 332 333 335 335 337 334 333

GFSFLT1_sfc_thetae_069.txt.gz
Theta_e
329 336 339 340 344 346 349 350 350 349 351 353 352 352 351 352 350 349 346 346 346 346 341 343 340 347 339 343 341 340 337 335
321 330 337 340 342 344 348 349 348 349 350 351 351 351 351 350 350 347 344 342 341 340 338 336 335 335 334 333 334 335 334 336
317 329 329 336 340 342 347 349 348 349 349 349 349 348 349 349 349 347 345 341 338 337 335 333 332 331 332 331 331 331 331 332
308 313 326 328 335 340 344 347 348 349 348 348 348 349 349 348 347 347 344 341 336 335 334 332 332 332 331 331 331 329 329 330
310 309 314 326 330 338 341 343 346 346 347 347 347 348 348 347 347 347 346 341 337 333 334 333 332 332 332 332 332 331 330 330
310 309 309 315 325 332 338 344 342 342 346 345 345 346 346 346 346 346 346 343 339 336 334 334 336 335 335 334 334 333 332 332
308 309 308 310 324 332 336 340 339 339 342 342 341 341 342 341 342 343 344 344 341 337 336 337 337 335 337 336 336 333 332 331
306 308 308 312 322 330 336 339 339 340 341 341 340 338 339 341 339 340 341 344 344 338 335 334 339 337 335 335 334 333 333 332
304 307 314 319 322 327 335 337 339 340 339 339 337 338 337 338 341 341 341 342 343 342 340 339 337 336 336 336 333 332 331 333
307 313 316 318 320 325 328 332 338 340 340 337 337 337 337 336 337 341 344 343 342 341 342 342 342 339 337 336 333 330 331 332
302 310 314 313 314 318 323 329 333 336 338 336 335 336 334 335 334 336 339 344 344 343 342 341 342 342 339 337 335 331 330 331
300 309 310 310 314 315 318 321 328 331 335 333 330 329 332 333 333 333 336 338 337 343 344 342 341 341 339 337 337 333 331 329
299 305 312 311 312 316 318 320 319 320 322 327 329 328 328 329 331 333 332 334 336 338 339 340 343 342 341 340 336 333 333 332
298 302 310 308 311 313 314 315 314 315 319 321 322 324 325 326 328 329 330 332 333 334 337 337 339 339 338 339 338 334 336 335
298 301 305 309 310 311 310 310 310 312 315 317 319 320 320 320 322 327 327 327 329 333 334 334 335 336 337 336 336 336 334 334
298 303 307 312 310 307 308 308 309 310 313 313 313 315 318 319 319 320 321 324 327 330 330 331 332 337 337 335 335 335 336 336
299 302 308 311 308 307 308 307 308 309 311 310 311 312 313 315 316 316 317 318 321 324 328 328 329 330 335 335 335 336 335 334
300 301 301 301 305 307 307 308 308 309 310 310 311 311 312 311 311 312 313 315 318 320 321 325 327 329 330 329 330 332 330 331
299 301 302 302 301 300 305 308 308 307 306 306 306 306 308 310 310 310 312 313 315 317 319 321 325 327 328 329 328 330 329 329
300 300 301 302 301 302 302 304 306 307 306 304 303 304 305 306 307 309 310 311 314 318 320 322 325 326 327 330 331 333 332 331

GFSFLT1_sfc_thetae_072.txt.gz
Theta_e
331 334 335 337 342 346 348 349 349 350 350 351 351 351 351 350 349 350 346 345 346 347 344 347 345 348 342 345 343 342 339 337
328 332 335 337 341 345 348 348 349 350 350 350 349 349 349 349 350 350 345 343 342 342 341 339 339 339 338 336 336 337 337 337
325 333 337 339 340 343 347 348 348 348 347 349 349 348 349 348 348 348 347 343 341 341 339 336 336 335 335 334 334 334 334 335
317 327 331 338 340 341 347 347 347 348 348 348 347 348 348 347 348 347 346 344 341 339 338 336 334 334 334 334 333 333 333 334
310 323 330 334 340 342 344 346 346 347 348 347 346 347 348 347 348 348 347 344 340 339 337 335 334 334 334 334 334 334 333 334
310 311 324 329 334 339 343 346 346 346 347 347 347 347 348 348 348 347 347 345 342 337 335 335 336 335 335 334 335 335 336 336
309 310 310 313 328 337 339 342 343 344 346 346 345 345 346 345 344 345 346 346 344 340 338 335 336 337 337 337 337 338 336 336
306 308 309 308 317 329 338 340 341 342 343 342 339 339 343 344 343 343 343 345 344 340 338 336 337 335 336 337 337 336 336 337
304 305 307 307 312 325 332 336 338 339 338 338 337 335 337 338 340 341 341 343 344 342 339 335 336 337 337 338 338 336 334 336
301 307 311 312 314 321 330 335 335 338 339 340 339 339 337 339 340 340 341 342 342 342 341 339 337 335 337 338 337 334 334 334
299 304 312 313 316 322 329 335 337 337 338 337 336 336 335 335 337 338 340 342 342 342 342 341 341 340 338 338 338 335 333 333
298 300 308 312 315 320 326 330 335 337 337 337 335 333 333 334 337 339 339 342 343 344 343 343 343 343 342 340 340 338 336 331
297 299 301 312 313 315 320 326 329 334 337 337 333 330 330 331 333 335 336 338 339 341 341 341 340 340 340 339 338 336 335 334
297 299 302 308 310 313 315 319 322 325 330 331 333 330 330 330 330 330 333 334 336 337 339 336 340 340 341 340 340 335 334 337
298 298 298 305 308 312 314 315 314 316 320 321 322 323 325 325 327 330 330 331 332 335 336 337 337 339 340 338 337 336 336 335
298 298 298 303 309 312 316 313 311 313 317 319 320 320 320 321 322 325 328 330 331 333 334 335 336 339 339 339 337 337 338 337
298 299 302 304 308 312 315 310 310 311 313 313 314 315 316 317 319 319 319 321 325 327 329 330 332 333 336 338 337 337 337 337
299 300 300 302 302 305 307 308 310 310 311 311 311 312 314 314 314 316 317 318 320 324 327 328 329 331 332 333 334 335 335 336
300 300 301 301 301 303 304 306 307 309 309 310 310 311 313 312 312 313 313 314 317 319 320 321 324 327 330 330 330 330 331 331
300 302 302 303 302 302 304 306 305 306 307 308 309 309 309 310 311 312 313 314 315 317 320 323 324 326 327 328 329 332 332 331

GFSFLT1_sfc_thetae_075.txt.gz
Theta_e
335 338 338 340 345 349 352 355 356 353 351 353 352 352 353 353 354 354 353 351 351 348 346 346 348 348 342 343 343 341 341 341
321 337 339 341 344 347 351 353 355 355 353 352 351 351 352 351 351 354 351 349 349 349 345 346 348 344 343 343 340 343 343 343
318 330 341 343 343 347 350 353 353 352 354 352 352 351 352 351 351 353 350 347 347 348 348 346 345 344 343 342 340 340 342 343
316 324 336 344 345 347 349 351 354 352 354 354 352 353 353 352 352 352 351 350 348 347 348 346 344 344 342 341 341 342 342 343
316 321 335 344 347 349 349 351 353 353 356 355 353 352 352 352 351 353 351 351 350 349 346 345 344 345 346 344 344 344 343 345
320 321 334 343 348 349 351 350 352 355 356 355 354 352 352 352 352 352 351 351 352 349 346 345 346 345 343 343 343 343 344 347
316 319 321 335 345 350 350 352 351 354 354 354 354 357 353 351 349 348 351 352 351 349 347 347 349 344 342 342 343 344 346 347
314 317 322 325 334 344 349 350 353 353 351 353 352 352 352 350 345 347 350 353 352 350 348 347 347 343 342 342 345 347 346 345
313 314 317 321 324 332 344 347 350 350 347 346 345 344 349 350 350 352 351 350 352 353 349 349 347 345 344 343 343 344 343 343
312 313 314 318 323 326 334 345 349 349 348 349 346 346 346 348 350 351 352 351 350 350 351 349 347 343 345 345 345 342 345 344
311 312 314 320 321 325 329 340 348 349 350 349 348 348 346 344 345 346 348 349 350 351 349 349 348 345 341 344 345 346 340 341
309 310 313 316 323 326 327 334 345 346 349 346 347 342 340 343 344 345 346 348 348 348 349 348 350 346 347 345 346 347 344 343
309 311 313 315 318 325 329 334 341 346 347 349 345 346 346 346 346 348 349 348 349 347 349 349 349 350 351 349 346 345 343 339
310 311 312 312 315 320 328 334 340 345 346 348 348 347 346 344 346 345 346 347 347 350 350 351 350 350 349 345 340 333 334 332
309 310 311 313 313 316 323 330 337 345 346 347 347 349 347 346 346 346 346 345 346 349 350 348 348 350 348 342 340 334 333 331
310 311 312 313 312 313 320 326 333 339 344 347 347 348 345 345 346 344 344 344 345 349 348 348 348 348 348 346 340 338 333 331
309 311 312 314 315 312 317 322 328 332 337 339 337 336 336 335 339 342 341 344 343 344 345 346 346 347 348 349 347 343 340 335
309 310 311 313 315 317 318 322 326 327 331 331 331 332 333 334 335 335 336 335 334 335 336 338 339 340 342 344 343 344 341 343
306 309 311 312 313 315 318 319 322 324 326 327 327 326 327 329 329 330 330 331 330 330 331 334 333 334 338 339 339 338 337 338
304 305 307 310 313 313 316 318 319 320 321 322 323 325 325 326 326 326 327 326 327 327 328 328 329 330 335 334 332 332 332 332

GFSFLT1_sfc_thetae_078.txt.gz
Theta_e
321 332 342 344 346 347 350 357 359 354 351 352 351 351 351 352 353 356 355 350 349 345 345 346 346 348 341 342 342 339 339 339
319 321 333 343 344 347 351 355 358 359 353 352 352 350 351 349 349 355 353 350 349 347 342 342 345 342 341 341 339 341 343 347
320 321 325 338 345 348 350 355 357 359 359 353 354 352 351 351 350 352 352 349 349 346 346 344 345 342 343 341 339 341 345 349
319 321 323 328 343 349 352 353 360 359 358 360 356 357 354 352 349 350 353 349 352 346 348 347 345 344 341 341 340 341 346 348
318 321 324 328 338 347 353 354 356 360 360 358 356 354 353 352 350 354 353 352 355 351 346 346 344 347 348 346 345 345 345 348
319 322 326 330 339 347 353 353 355 359 359 359 356 354 353 352 352 354 356 354 352 352 345 345 347 347 345 343 342 342 346 347
319 320 322 325 337 349 353 356 355 358 359 357 358 361 355 352 353 352 355 354 353 351 346 345 351 345 343 342 341 345 343 345
317 319 321 324 329 343 355 357 358 359 358 359 354 353 353 353 353 353 355 352 353 354 349 351 351 346 342 343 348 343 343 343
317 319 322 323 327 333 345 355 359 358 354 352 351 348 351 351 353 355 354 355 354 356 349 353 353 349 350 353 346 346 342 346
314 317 321 323 325 329 335 348 355 358 355 356 354 352 351 351 351 354 353 352 353 355 352 352 353 349 353 351 349 340 340 344
314 315 318 321 324 328 331 340 353 357 358 355 353 352 350 347 350 350 354 353 353 355 356 355 354 352 347 354 351 347 335 345
314 315 317 319 322 325 330 334 341 350 358 354 355 346 344 347 348 350 352 353 353 353 357 354 356 351 349 350 349 349 347 339
313 314 316 318 321 323 328 334 337 343 355 355 352 352 347 348 348 354 355 354 353 351 353 353 353 349 350 353 351 349 345 343
314 316 318 319 321 321 324 330 336 338 346 352 357 355 353 347 350 349 349 349 350 353 351 353 351 353 354 353 354 351 347 343
314 314 316 318 319 321 322 324 330 338 340 347 351 354 355 358 354 350 351 347 348 354 356 355 352 356 356 357 354 350 346 341
314 315 317 317 319 321 323 322 324 333 341 343 348 351 349 351 355 350 348 347 351 360 355 355 356 356 356 356 353 349 350 345
311 314 316 317 318 320 322 324 322 329 338 346 350 352 353 351 357 359 352 355 346 353 356 355 354 354 354 354 350 350 349 346
310 311 314 316 318 320 322 325 325 325 333 343 347 349 352 353 353 353 352 350 348 350 352 352 352 352 352 352 352 351 347 340
309 310 312 314 316 318 321 323 325 325 329 338 345 347 347 345 343 340 340 343 341 340 341 343 345 346 348 349 348 346 346 346
308 310 311 312 313 315 318 320 323 325 328 333 338 338 337 335 333 334 336 336 335 333 333 334 335 336 339 340 340 339 340 340

GFSFLT1_sfc_thetae_081.txt.gz
Theta_e
322 324 338 342 345 347 349 357 361 355 350 352 350 351 353 355 356 359 358 353 353 344 346 345 346 348 340 341 340 338 337 337
319 321 324 337 345 347 349 353 359 363 351 351 352 350 351 349 349 358 357 352 355 350 342 344 347 340 341 340 336 343 344 341
320 323 324 328 340 348 348 353 360 362 365 354 354 353 352 351 349 355 353 350 355 349 349 344 343 340 340 343 341 343 342 346
319 322 323 327 331 344 349 351 362 362 361 363 358 358 356 354 351 352 357 354 357 348 349 344 343 343 342 343 342 341 341 347
317 321 324 326 329 335 354 358 361 365 365 362 358 356 354 353 352 353 354 358 359 352 348 347 346 348 357 351 350 345 341 344
318 321 324 329 332 339 351 352 357 365 364 362 358 356 356 355 353 353 355 354 357 354 347 349 349 350 347 343 342 340 338 341
319 321 323 326 329 337 346 354 353 364 362 361 361 363 358 356 356 353 354 356 353 354 348 348 356 346 346 343 343 342 341 344
317 320 323 324 329 338 350 358 361 367 362 360 357 356 357 357 355 353 357 355 353 354 349 350 352 347 345 345 347 344 342 340
317 319 321 322 330 338 344 355 367 362 357 357 354 353 355 356 357 360 360 358 356 352 350 351 352 348 348 352 350 349 342 345
316 319 323 327 332 338 341 348 362 365 359 359 357 356 355 355 356 359 356 359 357 350 350 351 353 349 354 354 351 344 344 344
315 316 319 321 325 330 334 342 348 363 363 361 359 359 359 354 356 356 358 358 357 359 358 356 356 353 347 350 352 347 337 343
315 316 318 320 322 326 332 338 344 344 364 356 358 352 350 353 353 354 357 357 356 358 358 358 360 354 352 350 354 352 348 339
314 315 317 320 321 322 328 337 341 347 346 359 354 355 351 353 352 354 357 358 358 356 358 360 360 356 356 356 357 355 350 344
315 318 319 320 321 322 325 334 338 341 344 345 355 354 352 348 351 350 352 352 352 357 356 358 360 358 357 354 357 355 350 348
315 315 317 319 320 321 323 325 331 335 337 343 346 354 357 352 353 352 351 352 353 354 357 356 356 358 357 356 358 355 352 348
313 314 315 317 319 321 322 323 325 329 333 338 345 351 351 353 355 350 351 349 354 360 357 356 358 357 357 361 360 358 353 349
312 314 314 316 316 319 321 323 323 327 329 334 343 348 352 350 353 355 352 354 353 358 358 358 356 357 360 361 356 353 356 354
310 310 312 315 317 318 320 322 323 326 329 330 333 347 351 353 355 354 353 355 357 354 359 359 358 357 356 357 355 355 353 350
310 310 312 313 315 316 318 319 321 323 327 329 332 343 347 350 350 352 354 355 356 350 353 355 352 353 354 354 354 350 349 350
311 311 312 312 311 313 315 317 319 322 324 327 330 338 346 348 349 347 346 343 343 348 347 347 345 345 351 348 346 345 343 344

GFSFLT1_sfc_thetae_084.txt.gz
Theta_e
322 322 335 340 343 345 349 353 354 351 350 359 358 359 359 359 358 359 357 354 355 350 350 348 348 350 343 343 342 338 335 333
317 318 320 334 336 347 350 353 354 353 350 354 352 352 355 356 358 360 356 354 355 347 346 344 345 341 338 337 336 336 336 338
317 319 321 326 335 342 350 355 355 354 361 353 351 348 351 351 352 355 355 351 352 348 347 345 342 340 337 339 337 337 340 342
316 318 320 329 330 342 346 358 357 358 355 364 354 349 352 349 350 350 353 350 353 349 349 350 341 340 338 338 343 346 342 342
316 321 324 329 331 336 353 355 360 359 356 360 362 356 353 348 348 354 349 354 355 347 346 347 346 343 350 342 347 345 345 341
319 323 326 337 338 342 348 350 361 360 359 357 359 354 352 351 349 350 351 354 354 348 344 345 345 350 350 348 346 342 340 340
320 325 325 338 335 336 341 351 355 361 360 357 356 360 358 355 351 350 351 351 351 348 344 344 349 349 347 345 345 342 339 339
321 323 324 331 336 340 340 347 362 362 361 359 358 356 355 355 353 349 352 349 350 351 345 346 350 346 345 344 342 342 341 342
317 323 325 328 334 336 341 342 363 362 359 355 354 352 354 354 351 356 352 350 350 347 347 349 347 344 343 344 343 343 338 343
316 319 326 328 332 340 341 343 349 360 355 357 355 353 353 354 355 353 355 352 351 347 347 343 344 342 343 345 341 338 341 343
319 322 323 324 330 336 337 339 345 347 358 357 356 355 353 350 351 352 353 353 353 349 348 344 343 343 342 343 346 342 336 338
317 319 322 324 326 328 331 339 342 343 343 352 352 348 345 346 349 351 349 354 354 350 349 348 345 345 343 345 346 344 342 336
313 316 318 322 325 330 334 338 337 339 343 339 345 344 349 350 351 351 352 353 353 352 351 350 346 346 348 346 345 347 344 339
315 318 320 321 323 324 328 334 337 338 340 345 339 342 344 345 346 345 346 348 351 352 352 352 353 349 351 349 351 349 347 343
312 313 315 318 319 321 322 325 327 332 332 334 337 340 342 343 345 344 345 345 348 349 349 350 351 351 351 352 349 350 349 346
312 313 315 314 317 320 321 322 324 328 330 329 331 332 338 340 345 346 345 344 345 349 351 350 351 352 352 351 349 348 350 346
311 311 313 314 316 319 320 321 323 324 325 330 332 332 331 337 344 346 346 348 348 347 351 350 351 351 352 350 348 347 348 347
311 312 314 316 317 317 322 323 321 322 324 327 326 330 331 333 342 344 346 346 347 348 348 350 350 351 352 350 348 349 350 349
309 311 313 314 315 315 317 318 317 314 319 323 326 325 330 330 336 341 344 344 346 346 349 350 348 350 349 348 347 348 345 345
309 310 311 311 312 313 314 317 317 316 317 320 323 323 329 331 334 339 342 342 344 346 333 337 346 342 337 341 342 345 344 345

GFSFLT1_sfc_thetae_087.txt.gz
Theta_e
313 312 322 332 342 342 347 351 352 351 354 354 354 354 356 353 354 353 349 349 350 349 345 348 344 349 341 342 339 336 332 329
314 310 312 316 337 344 342 348 349 349 352 354 354 354 353 352 352 352 350 347 347 342 343 341 339 339 335 333 331 330 328 328
312 312 312 313 329 341 334 345 348 347 350 352 352 353 353 353 353 354 351 347 342 341 340 340 339 335 334 330 329 329 328 328
310 311 310 312 320 341 343 347 346 344 340 347 348 348 352 352 353 354 352 348 345 342 339 338 338 335 332 330 329 329 329 332
310 311 311 313 316 336 337 340 340 333 334 345 348 346 348 347 348 350 352 347 344 344 337 340 338 335 332 329 332 332 332 332
312 314 315 319 320 337 344 340 333 329 339 349 352 347 347 346 345 346 349 349 345 345 339 339 338 334 335 332 330 333 334 332
311 313 315 316 317 320 336 339 333 332 348 350 351 350 348 346 345 345 346 347 346 345 342 338 340 336 333 337 334 333 330 329
310 314 315 318 322 325 323 327 347 351 353 350 349 351 349 349 346 345 346 345 348 346 342 339 341 340 336 339 337 335 333 332
309 312 313 313 318 319 319 321 329 349 346 349 347 347 348 349 348 346 346 346 346 346 343 339 341 338 337 336 336 333 332 333
308 309 312 312 312 319 320 318 321 336 347 347 350 349 348 350 350 347 347 347 346 345 345 342 342 341 337 337 336 333 333 334
308 312 313 316 315 318 323 323 323 324 338 346 344 346 345 344 346 349 348 348 347 345 344 343 341 341 339 338 336 333 331 334
308 309 311 313 315 319 318 327 331 330 329 333 340 339 339 343 345 347 348 348 347 345 344 343 341 340 338 337 338 335 332 331
308 310 312 312 314 314 319 319 322 323 324 329 328 331 337 340 342 341 344 348 348 347 345 343 341 339 337 338 338 340 337 332
307 308 309 309 310 312 313 316 317 320 320 321 324 327 329 333 336 338 340 343 346 347 348 345 343 340 340 340 340 341 340 336
305 304 306 307 307 308 312 312 312 316 319 320 320 319 323 326 329 334 336 338 341 343 345 345 341 341 342 343 340 339 341 339
304 305 305 306 307 309 310 311 311 313 315 316 319 321 322 322 323 325 335 337 339 343 342 343 341 340 341 342 341 343 341 341
304 303 306 305 305 307 309 309 310 312 312 312 314 319 322 323 323 325 326 336 341 340 342 341 341 336 338 346 343 343 344 344
304 305 305 306 305 306 307 309 311 309 310 311 314 314 318 319 320 323 325 328 338 340 341 342 341 341 343 346 345 344 343 345
303 303 304 304 305 305 306 308 309 308 308 308 310 312 317 317 320 324 325 327 333 338 341 341 340 339 341 342 343 342 342 341
301 302 303 303 303 304 304 304 305 307 308 308 308 312 314 313 319 321 322 324 328 333 339 339 338 336 325 324 333 340 330 338

GFSFLT1_sfc_thetae_093.txt.gz
Theta_e
336 343 345 346 348 350 350 351 352 351 354 353 352 353 352 351 351 350 347 347 347 348 344 347 344 349 340 343 339 335 329 326
310 332 343 344 346 349 351 352 352 351 353 352 352 352 352 351 352 352 345 343 343 344 343 343 342 340 337 334 332 329 327 325
307 319 339 343 343 345 348 350 350 351 352 352 350 350 350 351 351 351 349 345 344 344 343 340 341 337 336 332 331 328 325 324
313 308 325 340 343 344 345 347 341 349 350 350 350 350 351 351 350 351 350 346 344 344 342 340 339 337 335 331 328 326 324 322
307 307 315 338 340 343 341 338 338 347 346 346 346 348 350 350 350 350 350 348 344 344 342 340 339 336 332 329 325 324 322 322
307 308 311 313 331 337 338 339 340 344 343 342 339 331 337 346 349 350 350 348 346 343 343 341 340 335 332 329 326 324 323 321
307 310 310 320 320 331 329 332 339 343 344 337 335 329 334 340 345 347 349 349 348 344 343 343 339 336 333 331 329 323 320 321
307 309 309 314 328 332 328 333 339 338 333 331 333 341 341 342 343 344 348 350 350 347 345 344 341 338 335 333 330 325 322 325
305 308 310 313 318 328 332 331 330 329 327 328 330 334 342 341 343 345 343 345 350 348 346 344 340 337 336 333 330 329 327 327
309 310 312 313 312 316 320 322 332 330 329 328 332 336 342 344 341 342 343 342 344 345 345 344 341 338 336 335 331 330 330 329
307 310 311 313 315 318 319 318 322 327 338 339 340 339 338 337 338 341 343 342 343 344 344 342 341 338 338 336 335 332 330 330
306 306 306 310 313 314 315 317 317 319 320 321 324 328 328 333 333 337 337 342 343 343 342 341 342 342 339 339 338 335 335 331
304 305 307 307 310 310 310 311 312 314 316 318 319 317 321 324 325 325 327 331 337 342 342 341 341 341 342 340 339 337 336 334
304 304 305 305 305 308 307 307 309 311 312 314 313 312 313 314 316 320 322 325 329 334 337 338 340 340 339 340 339 339 336 335
301 300 301 301 301 303 307 305 305 307 308 310 311 312 310 311 312 313 317 320 324 326 329 332 335 339 339 339 338 337 337 334
298 299 299 300 301 301 301 302 302 303 305 307 307 307 308 309 311 313 315 316 319 323 325 328 331 334 336 338 339 337 337 332
297 298 299 299 299 299 299 300 300 301 302 303 304 305 305 307 309 312 315 316 319 319 322 323 325 330 333 335 335 336 335 334
296 297 297 298 297 298 299 299 299 300 301 301 303 303 304 305 306 308 311 315 316 319 321 320 319 321 325 330 333 334 331 331
295 296 297 297 297 298 299 299 299 300 300 301 301 302 302 303 305 308 309 311 316 319 318 318 318 320 322 325 328 331 331 330
295 295 296 297 298 298 299 299 299 300 300 300 300 301 301 302 303 305 307 309 311 314 317 318 320 320 321 323 324 328 328 327

GFSFLT1_sfc_thetae_096.txt.gz
Theta_e
339 342 343 345 348 349 350 350 350 351 351 352 351 353 352 351 350 350 348 347 348 350 347 349 348 351 344 347 344 342 337 334
333 338 342 343 346 348 349 350 351 351 351 350 349 350 350 349 351 350 347 346 345 347 345 344 344 343 342 339 338 336 334 330
312 326 339 343 344 347 348 350 350 351 349 348 348 349 349 349 350 351 349 346 344 345 345 343 343 341 339 336 334 333 331 329
312 313 329 341 345 346 349 349 350 351 350 349 348 349 350 350 349 349 349 346 344 344 344 343 342 341 339 336 332 331 329 327
318 315 315 336 342 345 346 348 350 349 350 350 349 350 350 350 350 350 350 348 345 344 343 342 342 340 338 335 331 329 326 326
308 309 310 314 339 341 344 347 344 345 349 348 348 346 342 347 349 351 351 350 347 344 342 341 342 339 337 335 332 329 326 325
308 310 317 315 320 334 338 341 339 340 346 342 339 335 334 341 346 349 350 350 349 344 343 343 342 340 337 336 332 331 329 325
307 312 317 313 324 328 331 332 335 340 337 334 336 336 338 339 341 345 348 349 349 346 345 344 342 340 337 335 335 330 331 330
305 307 312 317 325 332 330 330 334 336 333 331 331 333 337 342 343 345 346 349 350 348 346 345 342 339 339 336 335 333 330 329
308 307 309 314 319 329 330 330 330 331 330 330 333 334 336 341 345 344 345 345 346 347 346 344 340 338 338 337 334 333 333 331
307 310 311 314 316 317 319 321 329 333 331 333 336 339 339 338 340 341 343 343 343 344 345 341 338 339 337 338 336 333 331 333
306 307 309 311 313 316 316 317 318 321 327 330 333 334 333 333 333 338 336 341 342 344 343 343 342 338 336 336 339 337 334 331
304 305 306 307 308 308 308 311 312 314 318 319 319 319 321 322 323 323 324 329 339 342 343 343 341 341 339 339 339 339 337 335
300 300 302 301 302 304 304 305 305 307 308 310 310 311 313 314 315 316 318 321 325 330 338 341 341 340 340 340 340 340 338 337
298 298 298 299 299 300 303 301 302 303 304 305 306 306 308 309 309 310 312 315 319 323 328 331 334 338 339 340 339 338 338 337
296 297 297 297 299 299 300 300 300 302 303 303 304 304 305 305 307 308 310 312 315 319 323 326 329 333 336 338 338 338 338 337
296 297 297 297 298 298 299 299 300 301 301 301 302 303 304 304 305 307 308 311 314 317 320 322 325 329 332 333 334 336 337 336
295 296 297 298 298 298 298 299 299 300 300 300 302 301 303 304 304 304 306 309 312 314 316 319 322 323 324 327 329 332 333 334
295 295 296 297 297 297 297 298 298 298 299 299 299 300 301 302 302 303 305 306 308 309 313 316 319 320 320 320 322 326 328 330
294 295 295 296 296 297 298 299 299 300 300 300 299 300 300 299 300 301 303 304 306 307 309 312 314 318 320 321 320 323 325 325

GFSFLT1_sfc_thetae_099.txt.gz
Theta_e
347 348 348 348 350 350 353 353 355 353 350 354 353 353 354 355 355 356 355 354 354 353 351 352 352 352 346 346 344 342 341 342
342 347 348 350 351 352 353 353 355 355 351 351 351 352 353 351 352 355 353 351 352 351 349 349 352 349 348 347 342 342 343 340
336 346 351 353 352 353 355 355 356 355 355 351 350 352 352 351 352 354 353 350 350 350 350 349 349 348 347 346 344 342 340 339
320 330 336 348 351 353 356 355 357 356 355 353 351 353 353 352 351 353 354 352 351 350 351 350 349 349 348 347 345 343 340 338
320 322 325 334 344 350 356 357 357 356 356 354 351 351 350 350 351 354 355 355 353 352 349 348 349 351 352 350 348 345 342 340
322 325 327 329 333 342 350 354 356 356 356 356 354 352 351 351 352 353 353 354 353 352 349 348 349 350 349 348 347 345 344 342
320 324 328 327 334 334 341 350 354 356 356 355 353 349 349 351 353 353 354 355 355 353 350 349 351 349 348 347 346 345 344 345
314 319 325 329 332 333 336 341 350 352 352 352 353 350 343 344 348 352 353 354 353 354 352 351 351 349 349 347 346 347 343 341
313 316 321 325 329 333 333 337 342 345 346 346 347 347 346 346 349 347 349 354 354 356 352 353 353 350 349 345 345 336 339 341
314 315 320 324 328 334 337 335 339 344 344 345 345 345 345 347 349 351 351 352 355 355 356 354 352 347 343 344 335 333 336 340
317 320 323 325 327 329 329 334 338 341 344 342 343 346 346 345 346 348 351 352 353 355 356 353 352 342 338 334 336 335 331 333
318 318 316 317 317 320 322 322 322 324 333 343 343 342 342 345 344 344 342 348 350 351 351 351 350 347 345 341 340 341 338 332
309 310 311 312 313 314 316 316 316 317 318 321 321 323 323 326 328 330 334 336 338 343 349 351 351 349 347 345 344 341 339 334
307 308 310 310 311 312 313 315 314 315 315 316 316 316 316 316 318 318 320 322 324 331 334 342 347 347 348 347 347 345 343 342
306 306 307 308 308 309 310 311 312 313 313 313 313 314 314 314 315 314 316 316 318 322 326 328 331 340 344 345 345 345 346 346
305 305 306 306 307 308 309 309 310 311 311 311 312 312 311 311 313 312 312 313 315 320 321 324 327 329 334 343 340 340 344 341
303 304 306 306 307 308 308 308 309 310 309 310 310 311 310 310 311 312 311 313 313 315 317 319 321 324 328 335 334 339 341 340
303 304 305 306 307 307 308 308 308 308 309 309 309 309 309 309 310 310 310 311 312 312 313 314 316 319 323 328 331 336 337 335
302 304 305 305 306 306 306 307 306 307 307 307 307 307 307 308 307 307 307 308 309 309 310 311 313 314 317 321 325 328 329 332
302 302 303 304 305 304 305 305 305 306 306 305 305 306 306 305 305 306 306 306 307 307 309 309 310 311 314 315 317 322 325 326

GFSFLT1_sfc_thetae_102.txt.gz
Theta_e
337 346 350 349 352 355 356 359 361 355 350 352 351 351 352 353 354 355 354 350 353 351 351 353 353 352 347 346 343 341 340 341
328 339 346 352 352 354 358 359 360 359 352 351 351 350 352 352 354 357 353 351 352 351 347 348 351 347 347 345 341 341 341 342
320 337 341 346 350 355 355 359 359 360 357 352 352 351 351 353 353 356 355 353 352 351 348 347 346 346 345 346 344 343 343 342
327 339 340 341 343 351 357 360 361 362 360 358 355 355 355 354 353 354 355 354 354 353 353 353 351 349 347 346 345 344 344 341
327 335 332 334 333 341 355 358 361 363 362 360 358 354 353 352 354 358 357 357 358 356 353 353 354 356 358 356 354 351 348 345
324 326 328 335 332 334 342 342 351 361 362 361 359 356 354 352 353 354 357 358 358 356 353 352 354 355 354 353 352 351 350 349
326 326 328 332 335 336 343 345 346 351 358 359 360 362 358 355 355 354 356 356 354 354 353 353 357 353 352 351 350 351 348 349
321 326 327 331 336 341 342 346 353 351 352 355 357 356 357 357 356 354 356 356 352 354 355 356 354 352 350 351 352 351 350 348
319 320 327 328 333 337 337 339 347 347 342 345 349 349 353 354 355 359 358 358 357 353 353 354 350 354 353 349 350 351 348 349
318 320 323 326 331 338 340 343 344 344 344 346 347 349 350 355 355 357 356 354 355 354 355 356 358 351 352 351 350 345 343 345
320 322 327 331 334 338 342 346 348 346 347 347 348 349 349 346 348 354 355 356 356 349 353 356 358 358 351 352 350 348 339 339
322 323 324 325 327 329 330 330 332 332 337 343 345 344 343 343 347 347 347 350 353 354 355 355 356 356 352 350 347 345 343 336
318 318 319 321 322 323 325 326 325 326 327 327 326 329 327 330 332 333 336 339 340 342 347 348 353 354 353 352 352 348 343 340
316 317 318 318 319 320 321 323 323 324 323 323 322 322 323 322 325 324 325 326 328 331 333 337 343 346 346 347 351 351 350 347
314 314 315 316 316 318 318 320 320 321 321 322 321 322 323 322 321 320 322 321 322 328 330 331 330 334 336 342 348 349 348 345
312 312 313 314 315 317 317 318 319 320 320 320 321 322 319 319 321 319 319 319 320 325 324 325 326 329 330 333 334 337 343 342
310 311 313 314 315 315 316 317 318 318 318 319 320 320 319 318 319 320 318 320 319 320 321 321 322 323 324 329 326 335 341 343
310 311 311 313 314 315 316 317 316 316 317 318 317 317 318 318 317 317 318 318 318 318 318 319 319 320 321 323 324 329 334 335
308 310 310 311 312 313 314 314 314 315 315 315 315 315 315 315 315 315 315 315 315 314 314 315 315 316 318 320 321 321 324 332
308 309 309 310 311 312 312 313 313 313 313 313 313 314 314 313 313 313 314 313 313 312 312 312 311 312 314 314 313 316 319 322

GFSFLT1_sfc_thetae_105.txt.gz
Theta_e
336 343 347 345 350 353 353 359 359 354 350 355 349 350 350 351 353 355 356 351 353 349 350 350 352 352 347 347 345 341 338 340
330 338 345 346 350 354 357 360 360 360 352 351 351 349 351 351 352 356 356 349 353 353 345 349 352 347 348 345 341 344 340 339
323 336 345 347 351 354 357 360 361 361 360 354 355 351 351 353 353 356 356 351 356 352 353 346 348 346 345 346 343 346 342 342
322 326 341 344 349 353 357 359 360 361 361 361 358 359 356 353 354 355 358 357 362 355 354 349 349 344 344 345 346 345 343 343
322 328 341 339 345 349 353 359 360 362 364 362 359 356 354 354 354 361 358 362 363 362 354 355 356 357 362 357 354 350 346 344
324 333 340 338 335 343 352 348 358 362 361 358 356 359 357 354 354 355 358 359 360 363 360 354 355 358 355 352 352 350 349 347
326 330 333 333 341 342 344 347 349 360 363 357 355 357 359 358 356 355 356 354 357 358 354 352 358 362 356 354 353 353 350 348
324 326 328 329 337 338 341 344 348 360 355 358 349 353 359 366 356 354 356 352 354 357 354 355 357 355 357 355 353 351 352 349
322 324 326 327 334 342 344 343 354 351 341 337 339 341 344 348 354 359 359 358 356 359 348 345 351 350 354 358 353 349 344 348
320 322 324 328 335 340 345 344 348 346 339 345 339 337 336 343 356 356 358 356 355 358 355 348 353 347 355 349 352 344 348 347
322 324 328 333 337 340 344 348 350 349 349 347 348 348 347 344 349 350 358 358 357 357 355 356 351 322 326 330 339 342 339 342
324 327 330 333 334 335 337 338 341 342 347 349 350 343 347 348 355 354 350 351 351 353 350 352 347 329 333 326 343 346 346 340
322 323 325 327 329 330 331 332 332 333 334 336 339 337 333 337 340 341 344 342 340 337 342 347 351 352 349 347 347 349 347 343
320 322 323 323 325 326 328 328 328 329 329 329 330 328 328 326 328 326 327 328 329 334 333 336 339 341 345 347 348 349 348 347
319 319 319 320 321 322 324 325 325 326 326 327 327 327 328 327 326 323 325 324 324 333 336 334 331 335 334 339 340 345 346 344
317 318 318 318 320 321 322 322 323 324 324 324 325 326 323 323 325 323 322 322 322 331 328 327 327 327 328 333 330 331 338 338
316 317 317 318 319 320 321 320 321 322 322 324 324 324 324 323 324 324 321 324 322 324 323 323 324 324 325 328 324 328 332 334
315 316 316 317 318 319 320 320 320 320 321 321 320 321 322 322 322 321 321 321 321 320 319 319 320 320 321 325 322 325 327 327
314 314 314 315 316 317 318 318 318 318 319 319 319 319 320 320 319 319 319 319 318 317 317 316 316 316 318 320 320 320 319 322
313 313 313 314 314 315 315 317 316 317 317 317 318 318 318 318 317 317 317 316 315 315 314 313 312 311 313 313 313 313 313 314

GFSFLT1_sfc_thetae_108.txt.gz
Theta_e
331 337 339 348 352 352 350 352 353 349 350 354 352 353 353 354 355 356 354 350 353 349 351 350 353 354 348 350 349 346 341 340
318 330 336 348 348 349 350 348 352 358 353 350 348 349 350 350 351 355 353 351 353 350 348 349 349 348 345 344 341 339 337 338
323 329 334 349 342 350 350 346 355 355 357 353 348 351 350 350 351 354 354 351 353 353 351 350 349 346 346 344 342 341 340 338
321 324 335 343 350 337 336 347 355 359 358 358 357 362 360 359 356 353 356 356 357 355 356 355 352 352 348 346 344 346 342 341
319 323 331 344 341 335 336 348 352 354 356 358 357 360 358 361 359 364 357 359 360 356 355 353 353 354 359 357 355 354 348 346
318 323 337 346 350 348 351 345 352 355 360 360 359 360 362 358 355 357 359 361 360 361 358 353 355 359 354 352 351 349 348 346
322 327 342 342 340 347 351 355 357 355 359 360 361 363 356 353 345 350 353 350 353 348 349 350 353 352 354 355 352 347 346 347
325 331 339 338 341 347 353 354 360 361 359 361 360 358 362 362 357 357 352 354 348 337 330 340 346 350 351 351 350 350 348 346
325 329 334 337 347 349 349 353 358 357 356 348 348 348 351 354 356 358 356 350 346 335 329 339 346 345 346 343 332 326 335 339
323 328 332 339 344 348 349 351 356 359 355 354 353 350 347 349 353 360 359 357 353 345 347 349 345 343 333 330 327 323 331 331
321 324 330 338 342 347 349 351 352 352 358 353 354 352 351 345 348 349 354 356 357 356 355 352 349 335 330 329 325 322 322 327
323 326 333 338 337 339 339 341 344 343 350 349 352 347 344 341 341 342 343 345 347 346 350 348 346 331 324 326 329 323 329 325
324 327 330 330 333 332 334 335 335 337 337 338 340 339 337 339 339 336 338 340 345 341 339 339 343 336 333 334 328 324 334 333
322 325 327 326 328 328 331 331 332 333 333 333 332 332 332 329 330 329 331 330 332 338 331 334 335 336 337 337 341 339 338 338
319 319 320 323 324 326 327 328 328 331 331 331 331 331 333 333 330 329 327 325 326 327 330 330 328 329 329 330 331 332 333 334
318 319 320 319 321 324 324 326 326 328 328 329 330 331 326 327 327 325 324 323 324 329 327 324 323 323 324 326 325 324 326 327
317 318 319 319 320 323 323 323 325 325 326 328 329 327 327 326 327 328 324 324 321 323 322 322 322 321 321 321 319 321 323 323
316 316 318 320 321 321 324 324 323 324 325 325 322 325 325 325 325 323 323 322 321 320 319 319 319 318 318 318 316 317 318 318
314 315 316 317 319 318 321 320 320 321 322 323 323 323 322 322 321 321 320 320 319 316 316 315 313 312 313 312 312 312 312 312
313 313 314 314 314 315 317 318 317 318 319 320 321 322 321 321 320 319 319 317 316 313 313 311 310 310 310 309 308 308 308 308

GFSFLT1_sfc_thetae_111.txt.gz
Theta_e
315 325 329 344 347 348 347 347 347 348 353 353 353 354 353 353 353 352 349 348 346 349 345 347 348 354 348 350 349 348 346 343
309 310 336 346 341 334 340 344 345 348 351 349 349 350 350 350 351 351 347 344 342 343 344 343 346 345 343 339 340 340 338 337
306 308 344 342 331 332 336 336 334 343 350 348 344 346 347 347 346 349 347 343 341 345 341 343 344 343 342 337 336 336 334 332
304 314 338 336 334 330 335 336 334 339 348 349 346 348 345 345 345 348 349 347 342 346 343 345 344 344 341 340 339 336 334 333
306 314 339 335 334 330 331 334 336 342 349 350 349 350 350 349 349 349 350 350 348 349 348 343 342 344 342 346 341 343 340 338
309 317 341 332 330 333 335 343 344 346 343 348 352 349 351 349 346 348 352 352 347 344 343 342 346 345 344 344 342 340 336 330
310 317 342 336 332 332 339 340 344 344 340 342 351 351 348 348 342 340 346 348 346 344 342 340 343 340 336 335 339 336 338 334
312 327 341 343 335 337 340 340 340 341 343 350 351 353 350 345 336 338 348 345 345 342 338 335 337 334 332 335 326 325 329 335
319 333 334 340 345 344 340 343 345 348 348 342 340 340 343 346 348 348 345 345 343 333 328 328 327 331 329 327 326 323 324 324
316 326 337 337 337 339 344 344 345 345 345 339 339 338 342 342 343 345 346 344 342 333 327 327 335 332 328 326 325 321 321 324
325 331 334 337 336 337 338 336 337 337 341 338 337 336 333 335 337 335 336 345 346 336 335 336 340 333 327 325 323 319 316 320
329 329 327 328 328 329 328 329 329 330 333 338 337 333 329 329 328 328 330 334 337 335 334 339 335 323 321 322 325 321 318 316
323 322 324 325 325 325 325 324 324 324 325 327 323 321 322 325 322 320 321 321 325 325 328 330 332 326 323 322 327 322 321 319
319 321 322 321 322 321 321 321 321 322 322 322 321 319 319 318 316 318 318 318 320 323 324 322 321 322 321 325 331 327 324 326
315 316 316 318 318 319 320 318 318 319 320 319 319 317 317 317 316 315 314 314 315 318 318 316 316 316 317 318 319 321 323 326
313 314 314 314 316 316 317 316 316 317 317 316 317 316 315 315 316 315 314 315 314 316 315 316 316 316 315 315 316 316 318 318
311 312 312 313 313 313 314 314 313 314 315 315 314 314 314 314 314 314 313 314 316 314 314 313 314 315 314 313 312 312 314 315
311 311 311 312 312 312 313 312 312 313 312 312 313 313 314 313 313 312 311 312 312 312 311 310 309 309 308 307 306 307 307 308
309 310 310 311 312 311 310 309 310 310 310 311 311 311 312 312 311 311 311 310 309 308 308 307 307 306 306 304 304 305 305 304
308 308 308 307 307 309 308 308 307 308 309 310 310 311 311 310 310 310 310 307 307 307 307 306 307 307 305 305 304 305 305 304

GFSFLT1_sfc_thetae_114.txt.gz
Theta_e
318 323 349 346 348 348 348 350 350 351 353 354 354 353 352 352 352 351 348 348 346 349 346 347 348 353 347 349 348 348 345 343
309 332 341 341 342 343 345 346 346 348 352 353 353 353 352 351 351 351 348 344 341 344 343 343 344 345 343 342 341 340 340 341
312 341 337 338 341 343 342 343 347 348 348 348 350 350 350 351 351 351 349 344 341 341 341 341 343 342 342 339 336 336 335 335
327 336 335 338 341 342 340 340 343 345 346 346 344 346 346 345 346 348 349 344 339 340 340 342 340 341 341 340 336 335 334 333
311 337 334 334 337 338 337 340 345 344 344 346 348 343 344 344 344 345 348 345 344 347 344 342 342 343 344 344 341 340 338 336
308 336 336 335 335 335 337 342 343 334 344 346 348 348 344 345 346 345 347 347 346 343 342 343 344 343 339 337 336 334 336 333
311 336 336 334 333 332 332 333 332 334 343 344 343 349 347 344 342 344 347 349 347 345 343 341 341 336 333 336 329 330 329 328
314 336 335 334 332 330 331 334 334 340 339 339 346 348 345 342 334 337 345 346 344 341 337 334 334 330 330 327 324 325 326 326
314 338 335 332 329 332 334 337 338 339 340 338 339 343 343 342 345 346 344 342 342 336 332 330 329 328 325 324 321 321 323 326
325 335 337 333 333 336 336 337 339 339 342 338 339 340 338 340 342 343 344 343 340 334 330 326 327 327 324 324 322 319 319 320
329 332 335 337 338 338 335 335 336 336 341 337 334 333 335 334 330 331 333 341 342 336 331 328 332 329 325 323 322 319 316 315
327 326 327 327 327 329 328 327 328 332 336 334 330 327 326 325 324 323 324 325 327 331 334 335 336 329 326 325 322 317 314 312
321 321 322 323 323 322 323 323 323 324 324 322 324 323 321 318 318 318 318 321 322 324 322 325 326 323 321 320 320 320 318 315
319 320 320 319 320 320 320 320 319 320 321 318 317 316 315 315 314 313 313 315 317 319 319 317 316 315 315 317 319 321 321 319
317 317 317 317 316 317 318 317 316 316 317 316 316 314 314 313 312 311 312 312 312 312 313 313 313 313 313 313 313 314 315 315
316 316 316 315 315 315 315 315 314 314 315 313 313 313 313 312 311 311 311 310 311 311 311 312 313 314 313 312 311 311 312 311
311 313 313 314 314 313 312 312 313 313 313 311 311 312 311 311 310 311 310 311 313 311 310 309 309 308 308 306 305 305 306 305
311 312 311 312 311 310 310 310 310 310 310 310 310 310 311 310 310 309 309 309 308 307 306 306 306 306 306 304 303 304 303 303
310 311 311 309 309 308 307 308 307 307 308 309 309 309 310 309 309 308 308 307 306 306 306 305 305 305 305 303 302 303 304 303
311 310 308 307 306 306 305 305 306 306 307 308 308 308 308 308 307 307 307 305 305 305 306 305 306 306 305 303 303 305 304 304

GFSFLT1_sfc_thetae_117.txt.gz
Theta_e
346 347 347 347 348 349 350 351 351 351 351 353 353 352 351 350 351 350 347 346 347 347 346 348 347 352 346 350 349 347 344 342
335 346 347 346 346 347 349 348 349 350 351 351 351 351 350 349 350 349 346 343 341 342 343 342 343 345 343 342 341 340 340 340
323 341 344 346 344 344 346 347 348 347 350 351 351 351 350 349 349 350 348 345 342 342 343 342 342 342 342 339 337 336 335 334
335 337 341 342 343 342 343 346 344 341 342 347 349 349 349 349 349 350 349 344 342 341 341 341 341 342 339 339 337 335 333 332
330 336 338 341 342 343 341 344 344 343 344 345 343 344 347 347 346 348 349 345 340 339 340 340 341 341 339 340 339 337 333 335
329 335 338 341 341 340 341 344 341 339 343 345 345 343 342 343 343 343 346 346 344 342 342 340 342 340 338 337 335 334 333 331
324 335 336 337 339 339 338 338 337 335 341 342 343 345 343 344 344 342 343 345 345 342 340 340 340 336 335 334 327 329 327 325
316 333 335 336 337 338 335 331 329 333 339 339 342 345 342 340 340 342 345 346 344 342 335 336 334 331 330 327 324 326 326 324
325 332 335 335 333 329 328 329 330 335 334 336 337 334 337 338 336 338 343 343 342 337 332 330 329 327 326 325 323 322 322 323
329 330 333 331 330 329 329 332 335 335 336 337 338 337 335 338 338 339 341 342 339 334 330 327 326 324 323 322 320 318 318 320
329 329 328 327 327 329 332 332 334 335 338 334 332 334 332 327 326 327 331 335 340 335 331 327 327 325 322 322 321 319 316 314
330 330 327 327 328 328 329 334 333 337 336 330 330 327 323 320 319 320 322 324 325 330 335 332 334 329 329 329 327 318 313 310
328 329 322 323 324 322 322 323 324 325 326 327 326 320 319 317 316 317 317 318 320 320 319 321 320 321 320 319 319 317 318 318
319 320 321 319 320 319 319 320 319 319 320 320 318 316 316 314 312 313 313 313 314 315 316 314 312 312 312 312 313 313 313 315
317 316 317 317 316 317 318 317 315 316 317 316 317 314 313 311 311 311 311 310 310 310 311 311 311 312 312 310 309 309 309 308
314 315 316 315 316 316 315 315 314 314 314 314 314 313 312 310 310 310 309 308 308 309 310 310 309 309 308 305 305 305 306 304
313 314 314 314 314 314 313 313 312 311 311 311 310 310 310 309 308 308 308 308 310 308 307 306 306 306 305 303 302 302 302 301
311 312 313 313 312 310 310 310 309 309 309 310 310 309 309 308 308 307 307 307 306 305 304 304 304 304 304 302 301 302 302 302
311 312 311 309 308 308 308 307 306 306 308 307 308 308 308 308 308 307 307 305 304 304 305 304 304 304 304 302 302 302 302 302
309 309 307 306 306 306 306 305 305 305 307 307 307 307 307 306 305 306 306 304 303 304 304 304 304 304 304 303 302 303 303 302

GFSFLT1_sfc_thetae_120.txt.gz
Theta_e
342 343 342 343 346 348 351 350 350 351 352 351 352 352 350 350 350 349 347 347 349 350 349 352 351 353 348 351 351 350 348 345
343 345 345 345 345 347 349 350 350 350 351 350 350 350 349 348 349 348 346 345 345 346 346 346 347 347 346 345 344 343 343 342
332 347 347 346 345 346 348 349 350 350 350 350 349 350 349 349 350 350 348 345 343 344 345 345 344 345 345 343 342 341 340 338
329 342 346 346 346 345 347 348 349 350 349 349 349 349 349 349 349 350 348 346 343 342 343 343 343 344 344 344 342 340 339 337
327 339 343 346 346 345 345 347 347 344 340 344 347 348 349 348 348 350 349 346 344 343 342 342 343 344 343 342 341 339 337 337
327 333 339 344 344 342 344 347 346 339 342 343 342 345 345 345 346 348 350 347 344 341 341 342 343 343 342 341 339 337 336 335
324 332 336 340 342 342 341 343 340 339 342 344 343 343 342 344 344 344 345 347 346 342 343 343 343 340 340 338 334 335 334 331
305 330 336 339 341 339 338 334 333 339 341 341 344 344 343 342 340 341 342 345 345 343 341 340 340 337 336 334 332 330 330 329
309 329 334 335 334 335 331 329 330 334 335 337 338 339 337 337 338 340 342 344 343 338 337 336 334 333 332 330 328 327 328 327
324 329 332 333 333 331 328 330 330 333 335 337 338 337 338 341 341 340 342 342 338 337 333 333 332 330 328 327 326 323 323 324
323 327 329 331 329 328 329 331 332 333 335 335 335 334 332 329 330 330 332 338 337 334 332 330 329 327 326 325 325 324 322 320
323 325 326 327 325 329 331 332 333 334 335 334 333 331 324 323 322 324 324 327 329 334 334 333 332 331 329 329 327 325 320 317
322 323 324 325 327 327 327 328 329 334 334 332 325 319 318 317 319 318 318 319 320 319 319 318 317 317 318 318 319 321 322 321
321 323 322 320 321 320 321 321 319 321 323 323 320 318 316 315 315 314 315 314 314 316 316 315 315 314 314 314 314 315 314 315
319 320 319 318 317 318 319 317 316 318 319 318 318 316 315 314 314 313 313 312 311 312 313 313 313 314 313 311 311 311 311 310
318 317 316 316 316 318 317 316 315 317 317 317 316 315 314 313 313 312 311 310 310 312 311 311 310 310 310 308 307 307 308 306
313 315 315 315 314 315 316 314 314 315 315 314 313 315 314 313 312 311 310 310 311 310 309 308 308 308 308 308 306 306 306 306
311 311 311 311 312 312 313 313 311 311 312 313 311 311 311 310 310 309 309 310 309 308 308 307 307 307 307 307 306 306 305 305
309 309 309 311 311 310 309 309 310 309 310 310 310 310 310 310 309 309 309 309 308 307 307 307 307 307 308 307 306 306 306 306
307 307 308 307 306 306 306 307 307 308 309 309 308 309 309 308 308 308 309 307 307 306 307 307 307 307 307 306 305 306 305 305

GFSFLT1_sfc_thetae_123.txt.gz
Theta_e
347 347 346 348 351 352 356 356 356 353 351 354 353 353 352 354 355 355 354 353 354 352 352 352 353 353 348 348 348 347 347 346
345 345 346 348 349 351 355 357 356 356 355 352 353 352 352 350 352 355 352 350 352 351 348 350 352 350 349 348 345 347 347 346
350 349 349 350 349 352 355 357 354 355 358 354 353 353 352 351 352 354 352 350 350 351 350 349 349 349 349 348 346 347 346 347
349 352 350 350 351 354 354 353 353 357 357 355 355 355 354 353 352 352 354 352 351 350 350 349 349 349 349 349 349 350 349 348
340 352 353 354 353 354 352 349 352 357 357 355 354 353 354 353 352 355 354 355 354 352 349 348 349 351 351 350 350 351 347 348
325 344 355 356 356 352 350 351 356 356 355 353 354 354 355 354 355 355 355 355 355 354 351 350 351 349 350 350 348 347 345 346
321 331 346 353 355 353 348 355 353 354 353 353 355 357 355 355 356 356 357 357 355 354 351 345 347 345 347 346 346 344 344 344
314 327 336 346 351 351 351 352 354 352 351 352 351 352 353 353 352 352 351 351 351 349 349 343 344 342 344 345 340 342 342 341
313 319 333 341 347 348 349 350 350 350 349 347 348 343 347 348 349 347 342 338 339 337 339 337 341 338 339 341 339 336 336 337
312 316 329 337 343 346 348 348 347 349 349 349 350 347 348 347 345 343 341 335 331 337 339 335 336 337 335 335 336 334 334 335
317 322 328 333 339 344 344 345 346 348 349 349 345 345 343 341 341 337 336 333 334 338 339 337 335 336 334 336 336 335 333 335
314 324 329 333 337 342 342 341 343 345 348 347 346 343 340 340 336 336 336 340 339 337 335 335 336 336 334 332 332 330 328 328
313 324 330 335 335 336 338 341 343 344 345 346 346 342 338 336 334 333 328 329 329 328 327 324 324 323 324 325 325 325 326 325
323 329 328 325 326 326 329 329 330 338 343 343 340 334 333 331 329 327 327 326 325 324 322 323 323 323 321 321 322 321 320 320
322 323 322 321 322 324 326 326 320 321 324 328 331 330 330 327 327 326 324 321 321 322 323 322 320 320 319 318 318 317 316 314
322 321 320 322 327 328 327 325 323 320 317 320 322 324 323 323 322 323 322 318 318 320 318 317 317 317 317 317 315 314 316 314
319 318 321 324 324 324 325 324 322 321 317 318 320 320 320 320 319 321 318 318 316 315 316 316 316 316 316 317 314 315 315 314
315 316 321 323 323 323 324 323 318 316 317 318 321 319 318 319 318 317 317 318 317 316 315 316 315 316 316 316 314 314 314 313
313 317 319 319 320 320 319 318 315 315 316 318 320 319 318 318 317 317 317 317 315 314 314 314 314 314 314 314 314 313 312 313
315 315 315 315 315 316 316 317 316 316 315 315 315 317 318 317 316 317 317 315 315 314 314 313 313 312 313 312 312 312 313 312

GFSFLT1_sfc_thetae_126.txt.gz
Theta_e
350 352 352 352 354 355 357 360 359 354 352 353 350 351 351 352 354 354 353 352 353 351 352 353 355 353 349 347 347 345 343 341
349 351 351 352 353 356 359 361 359 358 353 353 353 352 352 352 354 357 355 353 353 351 347 348 350 348 347 345 342 344 346 347
352 352 352 353 353 357 360 361 361 359 357 355 354 353 353 354 354 357 355 352 353 352 350 348 347 346 346 345 343 345 345 344
351 350 351 353 355 357 360 361 363 361 360 361 357 358 357 356 354 355 356 355 354 352 352 349 347 347 347 347 345 347 350 351
350 354 354 356 357 359 360 361 361 359 362 362 360 359 357 356 355 358 357 357 357 357 351 349 347 354 354 354 355 353 353 354
333 350 355 358 359 360 363 358 358 357 362 361 358 358 357 356 356 357 358 358 358 357 352 350 350 361 359 355 353 354 350 352
320 334 353 358 361 363 362 361 358 359 362 357 358 360 357 356 356 357 359 358 357 359 358 356 355 355 351 349 347 347 342 346
319 324 336 351 359 363 362 356 362 362 357 357 356 355 357 357 364 363 356 355 350 349 346 345 343 339 339 344 341 343 343 344
319 322 328 337 349 355 356 353 358 355 350 351 350 350 352 353 354 353 349 349 346 345 342 334 332 330 333 338 341 342 342 342
317 320 326 334 342 350 353 353 353 353 353 355 353 351 353 353 353 351 347 343 343 341 338 332 330 330 329 336 338 336 336 338
317 318 322 329 336 345 350 352 349 352 356 354 357 353 352 348 347 345 345 342 338 339 338 335 332 328 332 339 338 338 335 340
316 321 323 328 332 341 349 351 348 350 355 353 353 348 344 346 346 343 337 337 335 335 336 340 338 338 338 337 335 334 332 333
315 320 325 329 336 344 346 346 347 350 351 353 350 353 356 351 342 337 336 338 340 338 339 336 335 330 329 329 329 328 328 326
316 320 330 337 340 339 342 340 345 347 344 342 342 341 343 338 335 333 330 331 330 330 328 329 330 329 326 325 326 323 323 322
317 330 331 331 332 334 332 332 326 327 330 330 328 328 332 334 334 334 332 330 331 331 332 330 327 326 324 322 322 323 322 319
328 328 326 328 330 331 332 331 328 333 333 330 331 329 322 325 330 333 331 329 325 327 326 325 323 323 324 326 322 321 322 321
323 324 328 330 331 333 334 334 334 333 331 330 326 323 320 323 325 327 324 325 323 323 322 322 322 322 322 323 321 322 321 321
322 325 327 329 330 333 332 332 331 331 329 329 326 322 320 322 322 322 322 322 322 321 321 321 322 321 320 321 320 320 319 319
320 322 325 327 329 329 329 329 329 328 327 326 322 320 320 322 321 321 322 323 321 320 320 321 321 321 320 320 319 318 318 319
319 322 326 327 326 326 326 326 324 325 324 322 321 320 321 321 320 321 322 321 321 320 321 320 318 317 318 318 317 317 317 317

GFSFLT1_sfc_thetae_129.txt.gz
Theta_e
341 344 350 352 354 355 354 357 358 353 349 352 349 350 349 350 351 352 353 350 351 348 350 353 354 353 350 349 347 345 342 340
340 341 345 352 353 355 357 359 358 361 352 352 350 350 351 350 352 355 354 351 353 351 347 350 351 349 348 346 341 344 343 342
341 345 346 352 353 357 359 364 368 365 366 356 353 352 352 354 354 356 354 354 354 353 350 348 348 346 346 345 344 344 344 345
341 345 347 351 354 358 360 361 366 363 362 367 358 360 358 355 355 356 358 356 357 352 351 349 347 346 346 348 345 345 345 344
338 345 349 351 355 359 361 362 364 365 365 363 359 357 357 355 355 359 358 359 360 357 351 349 348 351 351 352 351 354 352 352
331 345 351 354 356 359 362 360 362 364 367 365 360 359 357 359 356 358 358 360 360 360 352 351 351 360 356 354 353 352 351 350
327 348 351 353 358 361 362 362 361 362 365 364 364 367 359 361 360 355 359 358 356 358 359 356 351 346 336 335 334 334 340 341
324 337 350 353 357 363 366 364 365 360 361 362 358 357 358 368 365 357 359 358 356 356 350 348 346 338 339 336 336 336 331 333
322 326 342 351 355 360 366 365 366 360 357 353 354 354 356 354 360 360 357 355 353 351 346 341 341 336 331 330 331 330 332 333
320 323 331 341 350 357 359 360 363 360 356 356 358 356 357 359 358 357 353 352 351 347 344 339 336 334 327 327 331 334 335 339
318 320 326 330 340 350 356 356 359 358 360 358 359 357 357 353 352 345 347 348 347 347 343 339 337 335 330 330 330 336 334 339
317 319 321 327 334 344 351 355 355 357 361 358 356 352 347 353 351 348 346 346 343 342 341 338 335 331 335 335 338 339 335 332
316 318 320 324 331 338 348 354 352 356 357 357 355 352 357 355 347 343 342 339 338 338 341 342 340 338 339 337 337 332 333 328
317 319 322 322 329 337 349 350 351 353 353 355 354 352 349 344 338 338 336 337 336 336 335 336 337 336 334 331 333 329 326 325
317 317 319 326 335 345 343 344 342 349 341 339 345 342 341 334 334 331 330 332 333 334 336 335 333 331 329 328 328 326 324 322
317 319 333 336 338 338 336 337 337 340 338 337 339 340 337 334 333 327 326 328 333 332 330 329 328 327 328 328 326 325 325 323
320 333 333 333 332 334 334 335 337 337 338 336 336 335 334 332 332 329 328 326 328 327 327 326 325 326 325 326 324 325 325 325
329 329 330 330 333 336 335 337 337 336 334 333 332 332 332 330 328 325 325 324 325 323 324 324 324 324 324 325 324 324 323 322
324 327 330 333 333 334 335 334 333 332 332 331 330 329 328 327 325 323 323 325 324 321 321 322 323 322 323 324 323 322 320 322
325 327 328 328 329 330 331 331 330 330 330 330 328 327 326 325 324 324 324 322 322 321 321 320 320 319 321 321 320 320 318 318